PEQUAWKET POND DAM: From 07/21/2018 00:00 to 09/21/2018 00:00

Date LAKE ELEVATION [FT] PRECIPITATION INCREMENT [IN] PRECIPITATION DAILY TOTAL [IN] AIR TEMPERATURE [F] RESERVOIR RELEASE [CFS]
09/19/2018 13:00 -- -- -- -- 11.0
09/19/2018 12:00 457.16 0.00 -- 59.7 11.0
09/19/2018 11:00 457.16 0.00 -- 58.6 11.0
09/19/2018 10:00 457.16 0.00 -- 58.4 11.0
09/19/2018 09:00 457.16 0.00 -- 58.4 11.0
09/19/2018 08:00 457.16 0.00 -- 59.6 11.0
09/19/2018 07:00 457.16 0.00 -- 60.7 11.3
09/19/2018 06:00 457.16 0.00 -- 61.2 11.8
09/19/2018 05:00 457.17 0.00 -- 62.6 11.5
09/19/2018 04:00 457.17 0.00 -- 63.1 12.0
09/19/2018 03:00 457.17 0.00 -- 65.0 12.0
09/19/2018 02:00 457.17 0.00 -- 65.0 12.0
09/19/2018 01:00 457.17 0.00 -- 66.7 12.0
09/19/2018 00:00 457.17 0.00 -- 68.6 12.0
09/18/2018 23:00 457.17 0.00 -- 68.9 12.0
09/18/2018 22:00 457.18 0.00 -- 71.6 12.0
09/18/2018 21:00 457.18 0.00 -- 73.4 12.0
09/18/2018 20:00 457.18 0.00 -- 75.6 12.3
09/18/2018 19:00 457.18 0.00 -- 79.2 12.5
09/18/2018 18:00 457.18 0.00 -- 84.6 12.5
09/18/2018 17:00 457.18 0.00 -- 84.1 12.3
09/18/2018 16:00 457.18 0.00 -- 84.8 12.5
09/18/2018 15:00 457.18 0.00 -- 81.5 12.3
09/18/2018 14:00 457.18 0.00 -- 76.8 12.0
09/18/2018 13:00 457.17 0.00 -- 74.2 12.0
09/18/2018 12:00 457.17 0.00 -- 69.6 12.0
09/18/2018 11:00 457.17 0.00 -- 69.1 12.0
09/18/2018 10:00 457.17 0.05 -- 69.3 12.0
09/18/2018 09:00 457.17 0.01 -- 69.0 12.0
09/18/2018 08:00 457.17 0.00 -- 68.2 12.0
09/18/2018 07:00 457.17 0.00 -- 68.9 12.0
09/18/2018 06:00 457.17 0.00 -- 69.8 11.8
09/18/2018 05:00 457.17 0.00 -- 71.1 11.8
09/18/2018 04:00 457.16 0.00 -- 70.6 11.8
09/18/2018 03:00 457.17 0.00 -- 70.9 12.0
09/18/2018 02:00 457.16 0.00 -- 71.0 11.3
09/18/2018 01:00 457.17 0.00 -- 71.5 11.5
09/18/2018 00:00 457.17 0.00 0.06 71.9 11.8
09/17/2018 23:00 457.16 0.00 -- 71.6 11.0
09/17/2018 22:00 457.16 0.00 -- 73.3 11.8
09/17/2018 21:00 457.17 0.00 -- 75.0 12.0
09/17/2018 20:00 457.17 0.00 -- 77.0 12.0
09/17/2018 19:00 457.17 0.00 -- 81.7 11.8
09/17/2018 18:00 457.17 0.00 -- 83.2 12.3
09/17/2018 17:00 457.17 0.00 -- 84.6 12.3
09/17/2018 16:00 457.17 0.00 -- 85.1 11.8
09/17/2018 15:00 457.17 0.00 -- 84.8 11.8
09/17/2018 14:00 457.17 0.00 -- 83.1 11.8
09/17/2018 13:00 457.16 0.00 -- 82.7 11.0
09/17/2018 12:00 457.16 0.00 -- 79.4 11.0
09/17/2018 11:00 457.16 0.00 -- 75.6 11.0
09/17/2018 10:00 457.15 0.00 -- 67.9 10.8
09/17/2018 09:00 457.15 0.00 -- 64.2 10.5
09/17/2018 08:00 457.15 0.00 -- 63.5 10.5
09/17/2018 07:00 457.15 0.00 -- 64.1 10.3
09/17/2018 06:00 457.15 0.00 -- 64.3 10.8
09/17/2018 05:00 457.15 0.00 -- 64.8 10.5
09/17/2018 04:00 457.15 0.00 -- 65.9 10.0
09/17/2018 03:00 457.15 0.00 -- 66.5 10.0
09/17/2018 02:00 457.15 0.00 -- 67.5 10.0
09/17/2018 01:00 457.15 0.00 -- 68.3 10.0
09/17/2018 00:00 457.15 0.00 0.00 69.0 10.0
09/16/2018 23:00 457.15 0.00 -- 70.2 10.0
09/16/2018 22:00 457.15 0.00 -- 71.1 10.3
09/16/2018 21:00 457.15 0.00 -- 73.4 10.8
09/16/2018 20:00 457.16 0.00 -- 75.5 11.0
09/16/2018 19:00 457.16 0.00 -- 84.8 11.0
09/16/2018 18:00 457.16 0.00 -- 86.6 11.0
09/16/2018 17:00 457.16 0.00 -- 89.1 11.0
09/16/2018 16:00 457.16 0.00 -- 90.1 11.0
09/16/2018 15:00 457.16 0.00 -- 90.1 11.0
09/16/2018 14:00 457.16 0.00 -- 87.2 11.0
09/16/2018 13:00 457.16 0.00 -- 82.5 11.0
09/16/2018 12:00 457.16 0.00 -- 83.3 11.0
09/16/2018 11:00 457.16 0.00 -- 76.2 11.0
09/16/2018 10:00 457.16 0.00 -- 68.5 11.0
09/16/2018 09:00 457.16 0.00 -- 61.0 11.0
09/16/2018 08:00 457.16 0.00 -- 58.6 11.0
09/16/2018 07:00 457.16 0.00 -- 58.8 11.0
09/16/2018 06:00 457.16 0.00 -- 59.1 11.0
09/16/2018 05:00 457.16 0.00 -- 59.6 11.0
09/16/2018 04:00 457.16 0.00 -- 60.5 11.0
09/16/2018 03:00 457.16 0.00 -- 61.5 11.5
09/16/2018 02:00 457.16 0.00 -- 61.9 11.5
09/16/2018 01:00 457.17 0.00 -- 63.2 12.0
09/16/2018 00:00 457.17 0.00 0.00 63.5 11.8
09/15/2018 23:00 457.17 0.00 -- 66.3 12.0
09/15/2018 22:00 457.17 0.00 -- 67.7 12.0
09/15/2018 21:00 457.17 0.00 -- 68.9 12.0
09/15/2018 20:00 457.17 0.00 -- 74.2 12.0
09/15/2018 19:00 457.18 0.00 -- 83.9 13.0
09/15/2018 18:00 457.18 0.00 -- 85.7 13.0
09/15/2018 17:00 457.19 0.00 -- 85.6 13.0
09/15/2018 16:00 457.18 0.00 -- 86.6 13.0
09/15/2018 15:00 457.18 0.00 -- 83.2 13.0
09/15/2018 14:00 457.19 0.00 -- 82.8 13.0
09/15/2018 13:00 457.19 0.00 -- 80.6 13.0
09/15/2018 12:00 457.18 0.00 -- 75.3 13.0
09/15/2018 11:00 457.18 0.00 -- 70.5 13.0
09/15/2018 10:00 457.18 0.00 -- 61.1 13.0
09/15/2018 09:00 457.18 0.00 -- 55.5 13.0
09/15/2018 08:00 457.18 0.00 -- 53.8 13.0
09/15/2018 07:00 457.19 0.00 -- 53.0 13.0
09/15/2018 06:00 457.19 0.00 -- 54.3 13.8
09/15/2018 05:00 457.19 0.00 -- 55.0 14.0
09/15/2018 04:00 457.20 0.00 -- 56.3 14.0
09/15/2018 03:00 457.20 0.00 -- 57.0 14.0
09/15/2018 02:00 457.20 0.00 -- 58.0 14.0
09/15/2018 01:00 457.20 0.00 -- 58.9 14.0
09/15/2018 00:00 457.20 0.00 0.00 59.9 14.0
09/14/2018 23:00 457.20 0.00 -- 60.8 14.3
09/14/2018 22:00 457.20 0.00 -- 62.8 14.3
09/14/2018 21:00 457.20 0.00 -- 65.4 15.0
09/14/2018 20:00 457.20 0.00 -- 71.9 15.0
09/14/2018 19:00 457.21 0.00 -- 80.5 15.0
09/14/2018 18:00 457.21 0.00 -- 83.6 15.0
09/14/2018 17:00 457.21 0.00 -- 83.9 15.0
09/14/2018 16:00 457.21 0.00 -- 84.9 15.0
09/14/2018 15:00 457.21 0.00 -- 83.2 15.0
09/14/2018 14:00 457.21 0.00 -- 80.0 15.0
09/14/2018 13:00 457.21 0.00 -- 78.6 15.0
09/14/2018 12:00 457.21 0.00 -- 74.2 15.0
09/14/2018 11:00 457.21 0.00 -- 69.6 15.0
09/14/2018 10:00 457.21 0.00 -- 65.2 15.0
09/14/2018 09:00 457.21 0.00 -- 59.1 15.0
09/14/2018 08:00 457.21 0.00 -- 57.5 15.3
09/14/2018 07:00 457.22 0.00 -- 57.7 16.0
09/14/2018 06:00 457.22 0.00 -- 57.6 16.0
09/14/2018 05:00 457.22 0.00 -- 57.9 16.0
09/14/2018 04:00 457.22 0.00 -- 60.3 16.0
09/14/2018 03:00 457.22 0.00 -- 61.0 16.0
09/14/2018 02:00 457.22 0.00 -- 61.9 16.0
09/14/2018 01:00 457.22 0.00 -- 62.0 16.0
09/14/2018 00:00 457.22 0.00 0.00 63.6 16.0
09/13/2018 23:00 457.22 0.00 -- 64.5 16.0
09/13/2018 22:00 457.22 0.00 -- 66.5 16.0
09/13/2018 21:00 457.22 0.00 -- 68.5 16.0
09/13/2018 20:00 457.23 0.00 -- 74.5 16.8
09/13/2018 19:00 457.23 0.00 -- 82.2 17.0
09/13/2018 18:00 457.23 0.00 -- 85.3 17.0
09/13/2018 17:00 457.23 0.00 -- 85.3 17.0
09/13/2018 16:00 457.23 0.00 -- 84.6 17.0
09/13/2018 15:00 457.23 0.00 -- 82.3 17.0
09/13/2018 14:00 457.23 0.00 -- 80.7 16.5
09/13/2018 13:00 457.23 0.00 -- 78.9 16.5
09/13/2018 12:00 457.23 0.00 -- 72.2 16.5
09/13/2018 11:00 457.23 0.00 -- 70.0 16.0
09/13/2018 10:00 457.23 0.00 -- 65.0 16.3
09/13/2018 09:00 457.23 0.00 -- 63.7 16.5
09/13/2018 08:00 457.23 0.00 -- 62.2 16.5
09/13/2018 07:00 457.23 0.00 -- 63.7 17.0
09/13/2018 06:00 457.23 0.00 -- 64.0 16.8
09/13/2018 05:00 457.23 0.00 -- 64.5 17.0
09/13/2018 04:00 457.23 0.00 -- 64.4 17.0
09/13/2018 03:00 457.23 0.00 -- 64.7 17.0
09/13/2018 02:00 457.23 0.00 -- 64.6 17.0
09/13/2018 01:00 457.23 0.00 -- 64.4 17.0
09/13/2018 00:00 457.23 0.00 0.00 64.8 17.0
09/12/2018 23:00 457.23 0.00 -- 64.6 17.0
09/12/2018 22:00 457.23 0.00 -- 65.8 17.0
09/12/2018 21:00 457.24 0.00 -- 67.5 17.0
09/12/2018 20:00 457.23 0.00 -- 69.4 17.0
09/12/2018 19:00 457.23 0.00 -- 70.3 17.0
09/12/2018 18:00 457.24 0.00 -- 70.8 17.0
09/12/2018 17:00 457.23 0.00 -- 70.0 17.3
09/12/2018 16:00 457.24 0.00 -- 71.6 17.3
09/12/2018 15:00 457.23 0.00 -- 73.9 17.0
09/12/2018 14:00 457.23 0.00 -- 72.7 16.5
09/12/2018 13:00 457.23 0.00 -- 71.1 16.3
09/12/2018 12:00 457.22 0.00 -- 68.9 16.0
09/12/2018 11:00 457.22 0.00 -- 66.5 16.0
09/12/2018 10:00 457.22 0.00 -- 61.7 16.0
09/12/2018 09:00 457.22 0.00 -- 60.5 16.0
09/12/2018 08:00 457.22 0.00 -- 59.5 16.0
09/12/2018 07:00 457.22 0.00 -- 59.6 16.0
09/12/2018 06:00 457.22 0.00 -- 59.9 16.0
09/12/2018 05:00 457.22 0.00 -- 59.8 16.0
09/12/2018 04:00 457.21 0.00 -- 59.7 15.5
09/12/2018 03:00 457.21 0.00 -- 60.7 15.0
09/12/2018 02:00 457.21 0.00 -- 61.8 15.0
09/12/2018 01:00 457.21 0.00 -- 63.6 15.0
09/12/2018 00:00 457.21 0.00 0.00 64.4 15.0
09/11/2018 23:00 457.21 0.00 -- 64.6 15.0
09/11/2018 22:00 457.21 0.00 -- 65.0 15.0
09/11/2018 21:00 457.21 0.00 -- 65.2 15.0
09/11/2018 20:00 457.20 0.00 -- 65.8 14.8
09/11/2018 19:00 457.20 0.00 -- 67.2 14.3
09/11/2018 18:00 457.20 0.00 -- 69.7 14.0
09/11/2018 17:00 457.20 0.00 -- 67.7 14.0
09/11/2018 16:00 457.20 0.00 -- 66.0 14.0
09/11/2018 15:00 457.19 0.01 -- 65.5 14.0
09/11/2018 14:00 457.19 0.00 -- 65.9 13.3
09/11/2018 13:00 457.19 0.02 -- 63.1 13.0
09/11/2018 12:00 457.18 0.10 -- 60.4 12.8
09/11/2018 11:00 457.17 0.00 -- 59.3 12.0
09/11/2018 10:00 457.17 0.01 -- 58.0 12.0
09/11/2018 09:00 457.17 0.02 -- 57.1 12.0
09/11/2018 08:00 457.16 0.01 -- 56.4 11.3
09/11/2018 07:00 457.16 0.16 -- 56.3 10.8
09/11/2018 06:00 457.15 0.09 -- 56.2 10.0
09/11/2018 05:00 457.14 0.13 -- 55.6 9.3
09/11/2018 04:00 457.13 0.18 -- 56.1 8.3
09/11/2018 03:00 457.11 0.02 -- 55.6 7.0
09/11/2018 02:00 457.11 0.02 -- 55.7 7.0
09/11/2018 01:00 457.11 0.01 -- 55.6 7.0
09/11/2018 00:00 457.11 0.07 0.78 55.5 7.0
09/10/2018 23:00 457.10 0.06 -- 55.5 6.5
09/10/2018 22:00 457.09 0.02 -- 56.0 6.0
09/10/2018 21:00 457.09 0.01 -- 56.8 6.0
09/10/2018 20:00 457.09 0.03 -- 57.2 6.0
09/10/2018 19:00 457.09 0.00 -- 59.5 6.0
09/10/2018 18:00 457.08 0.00 -- 61.8 6.0
09/10/2018 17:00 457.08 0.00 -- 62.6 6.0
09/10/2018 16:00 457.09 0.00 -- 62.9 6.0
09/10/2018 15:00 457.08 0.00 -- 63.5 6.0
09/10/2018 14:00 457.08 0.00 -- 61.3 6.0
09/10/2018 13:00 457.08 0.00 -- 59.0 6.0
09/10/2018 12:00 457.08 0.00 -- 56.8 6.0
09/10/2018 11:00 457.08 0.00 -- 52.2 6.0
09/10/2018 10:00 457.08 0.00 -- 48.9 6.0
09/10/2018 09:00 457.08 0.00 -- 47.0 6.0
09/10/2018 08:00 457.08 0.00 -- 44.9 6.0
09/10/2018 07:00 457.08 0.00 -- 46.9 6.0
09/10/2018 06:00 457.08 0.00 -- 46.5 6.0
09/10/2018 05:00 457.09 0.00 -- 46.9 6.0
09/10/2018 04:00 457.09 0.00 -- 47.2 6.0
09/10/2018 03:00 457.09 0.00 -- 48.0 6.0
09/10/2018 02:00 457.09 0.00 -- 47.1 6.0
09/10/2018 01:00 457.09 0.00 -- 48.6 6.0
09/10/2018 00:00 457.09 0.00 0.19 48.9 6.0
09/09/2018 23:00 457.09 0.00 -- 50.3 6.0
09/09/2018 22:00 457.09 0.00 -- 52.2 6.3
09/09/2018 21:00 457.09 0.00 -- 54.6 7.0
09/09/2018 20:00 457.10 0.00 -- 58.5 7.0
09/09/2018 19:00 457.09 0.00 -- 63.1 7.0
09/09/2018 18:00 457.10 0.00 -- 65.5 7.0
09/09/2018 17:00 457.10 0.00 -- 66.7 7.0
09/09/2018 16:00 457.10 0.00 -- 66.5 7.0
09/09/2018 15:00 457.10 0.00 -- 62.1 6.8
09/09/2018 14:00 457.09 0.00 -- 62.4 7.0
09/09/2018 13:00 457.09 0.00 -- 59.7 7.0
09/09/2018 12:00 457.09 0.00 -- 60.1 6.3
09/09/2018 11:00 457.09 0.00 -- 55.6 6.0
09/09/2018 10:00 457.09 0.00 -- 48.8 6.0
09/09/2018 09:00 457.09 0.00 -- 46.0 6.5
09/09/2018 08:00 457.09 0.00 -- 42.9 7.0
09/09/2018 07:00 457.09 0.00 -- 43.6 7.0
09/09/2018 06:00 457.09 0.00 -- 42.3 7.0
09/09/2018 05:00 457.10 0.00 -- 44.0 7.0
09/09/2018 04:00 457.10 0.00 -- 44.5 7.0
09/09/2018 03:00 457.10 0.00 -- 44.9 7.0
09/09/2018 02:00 457.10 0.00 -- 47.6 7.0
09/09/2018 01:00 457.10 0.00 -- 47.8 7.0
09/09/2018 00:00 457.10 0.00 0.00 48.1 7.0
09/08/2018 23:00 457.10 0.00 -- 48.3 7.0
09/08/2018 22:00 457.10 0.00 -- 48.6 7.0
09/08/2018 21:00 457.10 0.00 -- 48.8 7.0
09/08/2018 20:00 457.10 0.00 -- 49.1 7.0
09/08/2018 19:00 457.10 0.00 -- 49.3 7.0
09/08/2018 18:00 457.10 0.00 -- 49.6 7.0
09/08/2018 17:00 457.10 0.00 -- 49.8 7.0
09/08/2018 16:00 457.10 0.00 -- 50.1 7.0
09/08/2018 15:00 457.11 0.00 -- 50.3 7.0
09/08/2018 14:00 457.11 0.00 -- 50.6 7.0
09/08/2018 13:00 457.11 0.00 -- 50.8 7.0
09/08/2018 12:00 457.11 0.00 -- 51.1 7.0
09/08/2018 11:00 457.11 0.00 -- 51.3 7.0
09/08/2018 10:00 457.11 0.00 -- 51.6 7.0
09/08/2018 09:00 457.11 0.00 -- 51.8 7.0
09/08/2018 08:00 457.11 0.00 -- 52.1 7.0
09/08/2018 07:00 457.11 0.00 -- 52.3 7.0
09/08/2018 06:00 457.11 0.00 -- 52.6 7.0
09/08/2018 05:00 457.11 0.00 -- 52.8 7.0
09/08/2018 04:00 457.11 0.00 -- 53.1 7.0
09/08/2018 03:00 457.11 0.00 -- 53.3 7.0
09/08/2018 02:00 457.11 0.00 -- 53.6 7.0
09/08/2018 01:00 457.11 0.00 -- 53.8 7.0
09/08/2018 00:00 457.11 0.00 0.00 54.1 7.0
09/07/2018 23:00 457.11 0.00 -- 54.3 7.0
09/07/2018 22:00 457.11 0.00 -- 54.6 7.0
09/07/2018 21:00 457.11 0.00 -- 54.8 7.0
09/07/2018 20:00 457.11 0.00 -- 55.1 7.0
09/07/2018 19:00 457.12 0.00 -- 55.3 7.0
09/07/2018 18:00 457.12 0.00 -- 55.6 7.0
09/07/2018 17:00 457.12 0.00 -- 55.8 7.0
09/07/2018 16:00 457.12 0.00 -- 56.1 7.0
09/07/2018 15:00 457.12 0.00 -- 56.3 7.0
09/07/2018 14:00 457.12 0.00 -- 56.6 7.0
09/07/2018 13:00 457.12 0.00 -- 56.8 7.0
09/07/2018 12:00 457.12 0.00 -- 57.1 7.0
09/07/2018 11:00 457.12 0.00 -- 57.3 7.0
09/07/2018 10:00 457.12 0.00 -- 57.6 8.0
09/07/2018 09:00 457.12 0.00 -- 56.1 8.0
09/07/2018 08:00 457.12 0.00 -- 54.1 8.0
09/07/2018 07:00 457.12 0.00 -- 55.0 8.0
09/07/2018 06:00 457.12 0.00 -- 55.8 8.0
09/07/2018 05:00 457.12 0.00 -- 57.4 8.0
09/07/2018 04:00 457.12 0.00 -- 59.7 8.0
09/07/2018 03:00 457.12 0.00 -- 60.9 8.0
09/07/2018 02:00 457.12 0.00 -- 62.6 8.0
09/07/2018 01:00 457.12 0.00 -- 64.9 8.0
09/07/2018 00:00 457.12 0.00 0.00 66.1 8.0
09/06/2018 23:00 457.12 0.00 -- 68.7 8.3
09/06/2018 22:00 457.12 0.00 -- 69.2 8.5
09/06/2018 21:00 457.12 0.00 -- 70.5 8.3
09/06/2018 20:00 457.12 0.00 -- 74.0 8.5
09/06/2018 19:00 457.12 0.00 -- 76.8 9.0
09/06/2018 18:00 457.12 0.00 -- 78.6 8.8
09/06/2018 17:00 457.12 0.00 -- 79.0 8.0
09/06/2018 16:00 457.12 0.00 -- 75.4 8.8
09/06/2018 15:00 457.12 0.00 -- 74.8 8.3
09/06/2018 14:00 457.12 0.01 -- 74.5 8.0
09/06/2018 13:00 457.12 0.33 -- 72.8 7.5
09/06/2018 12:00 457.10 0.00 -- 87.0 7.0
09/06/2018 11:00 457.09 0.00 -- 84.0 7.0
09/06/2018 10:00 457.10 0.00 -- 80.0 7.0
09/06/2018 09:00 457.10 0.00 -- 76.6 7.0
09/06/2018 08:00 457.10 0.00 -- 74.7 7.3
09/06/2018 07:00 457.10 0.00 -- 74.5 6.8
09/06/2018 06:00 457.09 0.00 -- 75.4 6.8
09/06/2018 05:00 457.10 0.00 -- 75.9 7.0
09/06/2018 04:00 457.09 0.00 -- 75.5 6.8
09/06/2018 03:00 457.09 0.00 -- 75.5 6.8
09/06/2018 02:00 457.09 0.00 -- 75.2 6.8
09/06/2018 01:00 457.09 0.00 -- 74.1 7.0
09/06/2018 00:00 457.09 0.00 0.34 75.2 7.0
09/05/2018 23:00 457.09 0.00 -- 74.6 7.0
09/05/2018 22:00 457.10 0.00 -- 76.7 7.0
09/05/2018 21:00 457.10 0.00 -- 82.4 7.0
09/05/2018 20:00 457.10 0.00 -- 84.0 7.0
09/05/2018 19:00 457.10 0.00 -- 87.7 7.0
09/05/2018 18:00 457.10 0.00 -- 88.7 7.0
09/05/2018 17:00 457.09 0.00 -- 89.7 6.8
09/05/2018 16:00 457.10 0.00 -- 91.8 7.0
09/05/2018 15:00 457.10 0.00 -- 86.7 7.0
09/05/2018 14:00 457.10 0.00 -- 85.4 7.0
09/05/2018 13:00 457.10 0.00 -- 79.8 7.0
09/05/2018 12:00 457.10 0.00 -- 74.3 7.0
09/05/2018 11:00 457.09 0.00 -- 69.7 7.0
09/05/2018 10:00 457.09 0.00 -- 67.4 --
09/05/2018 09:00 457.10 -- -- 67.4 7.0
09/05/2018 08:00 457.10 -- -- 67.2 7.0
09/05/2018 07:00 457.10 -- -- 67.0 7.0
09/05/2018 06:00 457.10 -- -- 66.8 7.0
09/05/2018 05:00 457.10 -- -- 66.6 7.0
09/05/2018 04:00 457.10 -- -- 66.4 7.0
09/05/2018 03:00 457.10 -- -- 66.2 7.0
09/05/2018 02:00 457.10 0.00 -- 66.0 7.0
09/05/2018 01:00 457.10 0.00 -- 67.3 7.0
09/05/2018 00:00 457.10 0.00 -- 67.7 7.0
09/04/2018 23:00 457.10 0.00 -- 68.3 7.0
09/04/2018 22:00 457.10 0.00 -- 69.6 7.0
09/04/2018 21:00 457.10 0.00 -- 73.9 7.0
09/04/2018 20:00 457.11 0.00 -- 78.5 7.0
09/04/2018 19:00 457.11 0.00 -- 81.8 7.0
09/04/2018 18:00 457.10 0.00 -- 85.8 7.0
09/04/2018 17:00 457.10 0.00 -- 88.3 7.0
09/04/2018 16:00 457.11 0.00 -- 87.6 7.0
09/04/2018 15:00 457.11 0.00 -- 87.5 7.0
09/04/2018 14:00 457.11 0.00 -- 81.2 7.0
09/04/2018 13:00 457.11 0.00 -- 81.9 7.0
09/04/2018 12:00 457.11 0.00 -- 83.2 7.0
09/04/2018 11:00 457.10 0.00 -- 77.8 7.0
09/04/2018 10:00 457.10 0.00 -- 75.2 7.0
09/04/2018 09:00 457.11 0.00 -- 69.0 7.0
09/04/2018 08:00 457.10 0.00 -- 66.8 7.0
09/04/2018 07:00 457.11 0.00 -- 67.7 7.0
09/04/2018 06:00 457.11 0.00 -- 69.6 7.3
09/04/2018 05:00 457.10 0.00 -- 70.7 7.5
09/04/2018 04:00 457.11 0.00 -- 72.2 7.3
09/04/2018 03:00 457.11 0.00 -- 73.8 7.8
09/04/2018 02:00 457.11 0.00 -- 75.3 7.5
09/04/2018 01:00 457.11 0.00 -- 74.0 7.8
09/04/2018 00:00 457.11 0.00 0.00 74.8 7.5
09/03/2018 23:00 457.11 0.00 -- 78.9 7.5
09/03/2018 22:00 457.11 0.00 -- 78.6 8.0
09/03/2018 21:00 457.11 0.00 -- 80.9 8.0
09/03/2018 20:00 457.12 0.00 -- 84.5 7.8
09/03/2018 19:00 457.11 0.00 -- 88.0 7.8
09/03/2018 18:00 457.14 0.00 -- 89.8 9.3
09/03/2018 17:00 457.13 0.00 -- 90.9 8.8
09/03/2018 16:00 457.13 0.00 -- 89.4 9.0
09/03/2018 15:00 457.11 0.00 -- 89.9 8.5
09/03/2018 14:00 457.13 0.00 -- 88.9 8.3
09/03/2018 13:00 457.11 0.00 -- 89.3 8.3
09/03/2018 12:00 457.12 0.00 -- 85.6 8.0
09/03/2018 11:00 457.12 0.00 -- 81.7 8.0
09/03/2018 10:00 457.11 0.00 -- 74.3 8.0
09/03/2018 09:00 457.11 0.00 -- 69.9 8.0
09/03/2018 08:00 457.11 0.00 -- 67.8 8.0
09/03/2018 07:00 457.11 0.00 -- 68.3 8.0
09/03/2018 06:00 457.11 0.00 -- 69.1 8.0
09/03/2018 05:00 457.11 0.00 -- 70.0 8.0
09/03/2018 04:00 457.11 0.00 -- 72.0 8.0
09/03/2018 03:00 457.11 0.00 -- 70.4 8.0
09/03/2018 02:00 457.12 0.00 -- 69.7 8.0
09/03/2018 01:00 457.12 0.00 -- 70.0 8.0
09/03/2018 00:00 457.12 0.00 0.00 70.8 8.0
09/02/2018 23:00 457.12 0.00 -- 72.6 8.0
09/02/2018 22:00 457.12 0.00 -- 75.2 8.0
09/02/2018 21:00 457.12 0.00 -- 76.1 8.0
09/02/2018 20:00 457.12 0.00 -- 77.8 8.0
09/02/2018 19:00 457.12 0.00 -- 79.2 8.0
09/02/2018 18:00 457.12 0.00 -- 81.3 8.5
09/02/2018 17:00 457.13 0.00 -- 80.7 8.8
09/02/2018 16:00 457.13 0.00 -- 80.9 8.8
09/02/2018 15:00 457.13 0.00 -- 79.8 8.3
09/02/2018 14:00 457.12 0.00 -- 80.1 8.5
09/02/2018 13:00 457.12 0.00 -- 78.0 8.0
09/02/2018 12:00 457.11 0.00 -- 76.3 8.0
09/02/2018 11:00 457.11 0.00 -- 71.1 8.0
09/02/2018 10:00 457.11 0.00 -- 64.7 8.0
09/02/2018 09:00 457.11 0.00 -- 61.4 8.0
09/02/2018 08:00 457.11 0.00 -- 59.3 8.0
09/02/2018 07:00 457.11 0.00 -- 59.7 8.0
09/02/2018 06:00 457.12 0.00 -- 60.5 8.0
09/02/2018 05:00 457.11 0.00 -- 60.9 8.0
09/02/2018 04:00 457.12 0.00 -- 61.1 8.0
09/02/2018 03:00 457.12 0.00 -- 63.5 8.0
09/02/2018 02:00 457.12 0.00 -- 64.2 8.0
09/02/2018 01:00 457.12 0.00 -- 63.8 8.0
09/02/2018 00:00 457.12 0.00 0.00 64.8 8.0
09/01/2018 23:00 457.12 0.00 -- 67.3 8.0
09/01/2018 22:00 457.12 0.00 -- 68.2 8.0
09/01/2018 21:00 457.12 0.00 -- 69.1 8.0
09/01/2018 20:00 457.12 0.00 -- 70.7 8.5
09/01/2018 19:00 457.13 0.00 -- 72.4 8.5
09/01/2018 18:00 457.12 0.00 -- 75.3 8.5
09/01/2018 17:00 457.13 0.00 -- 72.4 8.5
09/01/2018 16:00 457.13 0.00 -- 73.8 8.8
09/01/2018 15:00 457.13 0.00 -- 73.3 9.0
09/01/2018 14:00 457.13 0.00 -- 72.1 9.0
09/01/2018 13:00 457.12 0.00 -- 69.3 9.0
09/01/2018 12:00 457.13 0.00 -- 68.3 9.0
09/01/2018 11:00 457.13 0.00 -- 67.4 8.5
09/01/2018 10:00 457.13 0.00 -- 60.3 8.5
09/01/2018 09:00 457.12 0.00 -- 58.7 8.5
09/01/2018 08:00 457.12 0.00 -- 57.6 8.8
09/01/2018 07:00 457.12 0.00 -- 57.6 9.0
09/01/2018 06:00 457.13 0.00 -- 56.9 9.0
09/01/2018 05:00 457.13 0.00 -- 54.7 9.0
09/01/2018 04:00 457.13 0.00 -- 55.1 9.0
09/01/2018 03:00 457.13 0.00 -- 55.2 9.0
09/01/2018 02:00 457.13 0.00 -- 56.2 9.0
09/01/2018 01:00 457.13 0.00 -- 57.2 9.0
09/01/2018 00:00 457.13 0.00 0.00 59.2 9.0
08/31/2018 23:00 457.14 0.00 -- 59.6 9.0
08/31/2018 22:00 457.14 0.00 -- 61.0 9.3
08/31/2018 21:00 457.14 0.00 -- 65.8 10.0
08/31/2018 20:00 457.14 0.00 -- 71.7 9.8
08/31/2018 19:00 457.14 0.00 -- 76.8 10.0
08/31/2018 18:00 457.14 0.00 -- 76.9 10.0
08/31/2018 17:00 457.14 0.00 -- 77.6 9.8
08/31/2018 16:00 457.14 0.00 -- 71.3 9.8
08/31/2018 15:00 457.14 0.00 -- 72.5 10.0
08/31/2018 14:00 457.14 0.00 -- 71.5 10.0
08/31/2018 13:00 457.14 0.00 -- 70.6 10.0
08/31/2018 12:00 457.14 0.00 -- 67.2 9.8
08/31/2018 11:00 457.14 0.00 -- 64.7 9.8
08/31/2018 10:00 457.14 0.00 -- 61.7 10.0
08/31/2018 09:00 457.14 0.00 -- 57.5 10.0
08/31/2018 08:00 457.14 0.00 -- 56.0 10.0
08/31/2018 07:00 457.14 0.00 -- 56.2 10.0
08/31/2018 06:00 457.15 0.00 -- 56.8 10.0
08/31/2018 05:00 457.15 0.00 -- 55.7 10.0
08/31/2018 04:00 457.15 0.00 -- 56.8 10.0
08/31/2018 03:00 457.15 0.00 -- 55.7 10.0
08/31/2018 02:00 457.15 0.00 -- 56.7 10.3
08/31/2018 01:00 457.15 0.00 -- 57.1 11.0
08/31/2018 00:00 457.16 0.00 0.00 61.2 11.0
08/30/2018 23:00 457.16 0.00 -- 62.4 11.0
08/30/2018 22:00 457.16 0.00 -- 65.3 11.0
08/30/2018 21:00 457.16 0.00 -- 66.5 11.0
08/30/2018 20:00 457.16 0.00 -- 70.1 11.0
08/30/2018 19:00 457.17 0.00 -- 74.3 12.0
08/30/2018 18:00 457.17 0.00 -- 76.6 12.0
08/30/2018 17:00 457.18 0.00 -- 78.0 12.5
08/30/2018 16:00 457.18 0.00 -- 79.9 12.0
08/30/2018 15:00 457.18 0.00 -- 81.0 12.3
08/30/2018 14:00 457.17 0.00 -- 78.4 12.3
08/30/2018 13:00 457.17 0.00 -- 75.8 12.0
08/30/2018 12:00 457.18 0.01 -- 75.1 12.0
08/30/2018 11:00 457.18 0.00 -- 78.7 12.3
08/30/2018 10:00 457.17 0.00 -- 76.1 12.0
08/30/2018 09:00 457.18 0.00 -- 75.2 12.0
08/30/2018 08:00 457.17 0.00 -- 72.5 12.3
08/30/2018 07:00 457.18 0.00 -- 72.4 12.3
08/30/2018 06:00 457.18 0.00 -- 72.4 12.8
08/30/2018 05:00 457.18 0.00 -- 72.3 12.8
08/30/2018 04:00 457.18 0.00 -- 72.2 13.0
08/30/2018 03:00 457.18 0.00 -- 71.9 13.0
08/30/2018 02:00 457.18 0.00 -- 72.1 13.0
08/30/2018 01:00 457.18 0.00 -- 73.1 13.0
08/30/2018 00:00 457.18 0.00 0.01 73.0 13.0
08/29/2018 23:00 457.19 0.00 -- 72.8 13.5
08/29/2018 22:00 457.18 0.03 -- 73.7 13.5
08/29/2018 21:00 457.18 0.00 -- 83.9 13.3
08/29/2018 20:00 457.19 0.00 -- 87.2 13.5
08/29/2018 19:00 457.19 0.00 -- 90.8 13.8
08/29/2018 18:00 457.20 0.00 -- 90.9 13.8
08/29/2018 17:00 457.20 0.00 -- 91.3 13.8
08/29/2018 16:00 457.19 0.00 -- 88.9 14.0
08/29/2018 15:00 457.20 0.00 -- 91.9 13.5
08/29/2018 14:00 457.20 0.00 -- 90.4 14.0
08/29/2018 13:00 457.20 0.00 -- 87.0 14.0
08/29/2018 12:00 457.20 0.00 -- 86.7 13.8
08/29/2018 11:00 457.19 0.00 -- 82.3 14.0
08/29/2018 10:00 457.20 0.00 -- 79.5 14.0
08/29/2018 09:00 457.19 0.00 -- 74.5 14.0
08/29/2018 08:00 457.19 0.00 -- 70.2 14.0
08/29/2018 07:00 457.20 0.00 -- 70.0 14.0
08/29/2018 06:00 457.20 0.00 -- 70.0 14.0
08/29/2018 05:00 457.20 0.00 -- 70.4 14.0
08/29/2018 04:00 457.20 0.00 -- 72.7 14.0
08/29/2018 03:00 457.20 0.00 -- 73.6 14.0
08/29/2018 02:00 457.20 0.00 -- 76.9 14.0
08/29/2018 01:00 457.20 0.00 -- 77.0 14.5
08/29/2018 00:00 457.20 0.00 0.03 79.4 14.3
08/28/2018 23:00 457.20 0.00 -- 78.9 14.8
08/28/2018 22:00 457.21 0.00 -- 82.4 15.0
08/28/2018 21:00 457.20 0.00 -- 83.8 15.0
08/28/2018 20:00 457.21 0.00 -- 84.3 15.0
08/28/2018 19:00 457.20 0.00 -- 85.0 15.0
08/28/2018 18:00 457.21 0.00 -- 86.7 15.0
08/28/2018 17:00 457.21 0.00 -- 88.7 15.5
08/28/2018 16:00 457.21 0.00 -- 90.7 15.5
08/28/2018 15:00 457.22 0.00 -- 91.3 16.0
08/28/2018 14:00 457.23 0.00 -- 90.0 15.8
08/28/2018 13:00 457.22 0.00 -- 87.1 16.0
08/28/2018 12:00 457.21 0.00 -- 82.7 15.8
08/28/2018 11:00 457.21 0.00 -- 81.2 15.3
08/28/2018 10:00 457.21 0.00 -- 74.5 15.0
08/28/2018 09:00 457.21 0.00 -- 71.2 15.0
08/28/2018 08:00 457.22 0.00 -- 69.1 15.3
08/28/2018 07:00 457.21 0.00 -- 68.8 15.3
08/28/2018 06:00 457.21 0.00 -- 69.6 15.0
08/28/2018 05:00 457.21 0.00 -- 70.0 15.5
08/28/2018 04:00 457.22 0.00 -- 70.7 16.0
08/28/2018 03:00 457.22 0.00 -- 70.0 16.0
08/28/2018 02:00 457.22 0.00 -- 71.5 16.0
08/28/2018 01:00 457.22 0.00 -- 71.5 16.0
08/28/2018 00:00 457.22 0.00 0.00 71.9 16.0
08/27/2018 23:00 457.22 0.00 -- 73.4 16.0
08/27/2018 22:00 457.22 0.00 -- 75.9 16.0
08/27/2018 21:00 457.22 0.00 -- 77.7 16.0
08/27/2018 20:00 457.22 0.00 -- 80.2 16.0
08/27/2018 19:00 457.22 0.00 -- 83.0 16.0
08/27/2018 18:00 457.23 0.00 -- 86.1 16.8
08/27/2018 17:00 457.23 0.00 -- 89.3 17.0
08/27/2018 16:00 457.23 0.00 -- 86.0 16.8
08/27/2018 15:00 457.23 0.00 -- 88.1 16.8
08/27/2018 14:00 457.23 0.00 -- 86.2 17.0
08/27/2018 13:00 457.23 0.00 -- 85.8 17.0
08/27/2018 12:00 457.23 0.00 -- 83.3 17.0
08/27/2018 11:00 457.23 0.00 -- 80.9 17.0
08/27/2018 10:00 457.24 0.00 -- 77.7 17.8
08/27/2018 09:00 457.24 0.00 -- 74.1 17.0
08/27/2018 08:00 457.23 0.00 -- 66.7 17.0
08/27/2018 07:00 457.23 0.00 -- 64.8 17.0
08/27/2018 06:00 457.24 0.00 -- 65.0 17.3
08/27/2018 05:00 457.24 0.00 -- 66.5 17.0
08/27/2018 04:00 457.24 0.00 -- 66.5 17.8
08/27/2018 03:00 457.24 0.00 -- 67.9 17.8
08/27/2018 02:00 457.24 0.00 -- 70.2 18.0
08/27/2018 01:00 457.24 0.00 -- 71.3 18.0
08/27/2018 00:00 457.24 0.00 0.00 73.2 18.0
08/26/2018 23:00 457.24 0.00 -- 72.7 18.0
08/26/2018 22:00 457.24 0.00 -- 71.5 18.3
08/26/2018 21:00 457.25 0.00 -- 73.6 18.8
08/26/2018 20:00 457.25 0.00 -- 76.7 18.8
08/26/2018 19:00 457.25 0.00 -- 78.0 19.0
08/26/2018 18:00 457.25 0.00 -- 79.0 19.0
08/26/2018 17:00 457.25 0.00 -- 80.4 19.3
08/26/2018 16:00 457.26 0.00 -- 81.2 19.5
08/26/2018 15:00 457.26 0.00 -- 80.0 19.8
08/26/2018 14:00 457.26 0.00 -- 78.9 19.5
08/26/2018 13:00 457.26 0.00 -- 77.3 19.5
08/26/2018 12:00 457.26 0.00 -- 75.6 19.0
08/26/2018 11:00 457.25 0.00 -- 71.8 19.0
08/26/2018 10:00 457.25 0.00 -- 64.5 19.0
08/26/2018 09:00 457.25 0.00 -- 60.8 19.0
08/26/2018 08:00 457.25 0.00 -- 60.5 19.0
08/26/2018 07:00 457.25 0.00 -- 60.3 19.0
08/26/2018 06:00 457.26 0.00 -- 61.7 19.0
08/26/2018 05:00 457.26 0.00 -- 62.0 19.0
08/26/2018 04:00 457.26 0.00 -- 62.6 19.3
08/26/2018 03:00 457.26 0.00 -- 63.1 19.8
08/26/2018 02:00 457.26 0.00 -- 65.3 20.0
08/26/2018 01:00 457.26 0.00 -- 66.3 20.0
08/26/2018 00:00 457.26 0.00 0.00 69.0 20.0
08/25/2018 23:00 457.27 0.00 -- 70.5 20.0
08/25/2018 22:00 457.27 0.00 -- 73.7 20.0
08/25/2018 21:00 457.27 0.00 -- 72.5 20.0
08/25/2018 20:00 457.27 0.00 -- 75.7 20.0
08/25/2018 19:00 457.27 0.00 -- 80.0 20.5
08/25/2018 18:00 457.27 0.00 -- 82.3 21.0
08/25/2018 17:00 457.27 0.00 -- 83.9 20.8
08/25/2018 16:00 457.28 0.00 -- 81.9 21.0
08/25/2018 15:00 457.27 0.00 -- 83.2 21.0
08/25/2018 14:00 457.27 0.00 -- 80.8 21.0
08/25/2018 13:00 457.27 0.00 -- 81.0 21.0
08/25/2018 12:00 457.27 0.00 -- 78.3 21.0
08/25/2018 11:00 457.27 0.00 -- 70.0 20.0
08/25/2018 10:00 457.27 0.00 -- 67.0 20.3
08/25/2018 09:00 457.27 0.00 -- 61.9 20.5
08/25/2018 08:00 457.27 0.00 -- 58.1 21.0
08/25/2018 07:00 457.28 0.00 -- 57.8 21.0
08/25/2018 06:00 457.28 0.00 -- 59.2 21.0
08/25/2018 05:00 457.28 0.00 -- 59.5 21.0
08/25/2018 04:00 457.28 0.00 -- 59.8 21.0
08/25/2018 03:00 457.28 0.00 -- 61.8 22.0
08/25/2018 02:00 457.29 0.00 -- 62.3 22.0
08/25/2018 01:00 457.29 0.00 -- 63.4 22.0
08/25/2018 00:00 457.29 0.00 0.00 64.5 22.0
08/24/2018 23:00 457.29 0.00 -- 66.6 23.0
08/24/2018 22:00 457.30 0.00 -- 68.5 23.0
08/24/2018 21:00 457.30 0.00 -- 72.0 23.0
08/24/2018 20:00 457.30 0.00 -- 79.4 23.3
08/24/2018 19:00 457.31 0.00 -- 81.5 23.8
08/24/2018 18:00 457.31 0.00 -- 82.8 24.0
08/24/2018 17:00 457.31 0.00 -- 82.3 24.3
08/24/2018 16:00 457.31 0.00 -- 82.3 24.5
08/24/2018 15:00 457.32 0.00 -- 82.3 24.5
08/24/2018 14:00 457.31 0.00 -- 78.7 24.0
08/24/2018 13:00 457.31 0.00 -- 76.6 24.0
08/24/2018 12:00 457.31 0.00 -- 74.0 24.0
08/24/2018 11:00 457.31 0.00 -- 69.1 24.0
08/24/2018 10:00 457.31 0.00 -- 62.0 24.0
08/24/2018 09:00 457.31 0.00 -- 55.3 24.0
08/24/2018 08:00 457.31 0.00 -- 53.5 24.0
08/24/2018 07:00 457.31 0.00 -- 52.1 24.0
08/24/2018 06:00 457.32 0.00 -- 51.6 25.0
08/24/2018 05:00 457.32 0.00 -- 52.8 25.0
08/24/2018 04:00 457.32 0.00 -- 52.8 25.0
08/24/2018 03:00 457.32 0.00 -- 53.1 25.0
08/24/2018 02:00 457.32 0.00 -- 53.9 25.0
08/24/2018 01:00 457.33 0.00 -- 56.2 26.0
08/24/2018 00:00 457.33 0.00 0.00 56.7 26.0
08/23/2018 23:00 457.33 0.00 -- 59.6 26.0
08/23/2018 22:00 457.33 0.00 -- 62.4 26.5
08/23/2018 21:00 457.34 0.00 -- 64.9 27.0
08/23/2018 20:00 457.34 0.00 -- 68.3 27.0
08/23/2018 19:00 457.34 0.00 -- 74.6 27.0
08/23/2018 18:00 457.34 0.00 -- 76.2 27.8
08/23/2018 17:00 457.34 0.00 -- 77.1 26.8
08/23/2018 16:00 457.35 0.00 -- 77.2 27.8
08/23/2018 15:00 457.34 0.00 -- 73.5 27.5
08/23/2018 14:00 457.35 0.00 -- 74.1 27.8
08/23/2018 13:00 457.35 0.00 -- 72.4 28.0
08/23/2018 12:00 457.34 0.00 -- 71.6 27.3
08/23/2018 11:00 457.34 0.00 -- 71.7 27.0
08/23/2018 10:00 457.34 0.00 -- 66.8 26.8
08/23/2018 09:00 457.34 0.00 -- 62.7 27.0
08/23/2018 08:00 457.34 0.00 -- 59.5 27.0
08/23/2018 07:00 457.33 0.00 -- 60.7 26.5
08/23/2018 06:00 457.34 0.00 -- 62.1 27.0
08/23/2018 05:00 457.34 0.00 -- 60.9 26.3
08/23/2018 04:00 457.33 0.00 -- 61.4 26.0
08/23/2018 03:00 457.33 0.00 -- 61.7 26.0
08/23/2018 02:00 457.33 0.00 -- 63.1 25.5
08/23/2018 01:00 457.32 0.00 -- 64.0 25.0
08/23/2018 00:00 457.32 0.00 0.00 63.4 25.0
08/22/2018 23:00 457.32 0.00 -- 64.7 25.0
08/22/2018 22:00 457.31 0.00 -- 65.5 24.3
08/22/2018 21:00 457.31 0.00 -- 68.1 24.0
08/22/2018 20:00 457.31 0.00 -- 72.4 24.0
08/22/2018 19:00 457.30 0.00 -- 75.0 23.0
08/22/2018 18:00 457.30 0.02 -- 71.2 23.0
08/22/2018 17:00 457.29 0.00 -- 73.2 22.5
08/22/2018 16:00 457.29 0.00 -- 70.6 22.0
08/22/2018 15:00 457.28 0.00 -- 67.4 21.5
08/22/2018 14:00 457.29 0.02 -- 65.8 21.8
08/22/2018 13:00 457.28 0.07 -- 65.0 21.0
08/22/2018 12:00 457.27 0.42 -- 64.0 19.5
08/22/2018 11:00 457.23 0.38 -- 63.5 15.0
08/22/2018 10:00 457.19 0.03 -- 63.2 13.8
08/22/2018 09:00 457.19 0.03 -- 62.8 13.0
08/22/2018 08:00 457.19 0.00 -- 62.7 13.0
08/22/2018 07:00 457.19 0.00 -- 63.0 13.0
08/22/2018 06:00 457.19 0.00 -- 62.9 13.0
08/22/2018 05:00 457.19 0.00 -- 63.8 13.3
08/22/2018 04:00 457.19 0.00 -- 64.6 13.3
08/22/2018 03:00 457.19 0.00 -- 64.1 13.5
08/22/2018 02:00 457.19 0.00 -- 63.8 13.8
08/22/2018 01:00 457.19 0.00 -- 64.7 14.0
08/22/2018 00:00 457.19 0.00 0.97 65.8 14.0
08/21/2018 23:00 457.20 0.00 -- 66.9 14.0
08/21/2018 22:00 457.20 0.00 -- 67.7 14.0
08/21/2018 21:00 457.20 0.00 -- 69.5 14.0
08/21/2018 20:00 457.20 0.00 -- 71.2 14.5
08/21/2018 19:00 457.20 0.00 -- 72.7 15.0
08/21/2018 18:00 457.20 0.00 -- 74.2 15.0
08/21/2018 17:00 457.20 0.00 -- 75.7 15.0
08/21/2018 16:00 457.21 0.00 -- 74.4 15.0
08/21/2018 15:00 457.21 0.00 -- 74.6 14.8
08/21/2018 14:00 457.20 0.00 -- 73.1 15.0
08/21/2018 13:00 457.20 0.00 -- 74.0 14.5
08/21/2018 12:00 457.20 0.00 -- 71.3 14.0
08/21/2018 11:00 457.20 0.00 -- 69.3 14.3
08/21/2018 10:00 457.20 0.00 -- 64.4 14.3
08/21/2018 09:00 457.20 0.00 -- 58.9 15.0
08/21/2018 08:00 457.20 0.00 -- 53.9 15.0
08/21/2018 07:00 457.21 0.00 -- 55.4 15.0
08/21/2018 06:00 457.21 0.00 -- 56.8 15.0
08/21/2018 05:00 457.21 0.00 -- 57.1 15.0
08/21/2018 04:00 457.21 0.00 -- 58.4 15.0
08/21/2018 03:00 457.21 0.00 -- 58.8 15.5
08/21/2018 02:00 457.22 0.00 -- 59.7 16.0
08/21/2018 01:00 457.22 0.00 -- 60.8 16.0
08/21/2018 00:00 457.22 0.00 0.00 62.7 16.0
08/20/2018 23:00 457.22 0.00 -- 64.5 16.0
08/20/2018 22:00 457.22 0.00 -- 66.8 16.0
08/20/2018 21:00 457.22 0.00 -- 70.0 16.0
08/20/2018 20:00 457.22 0.00 -- 75.6 16.3
08/20/2018 19:00 457.23 0.00 -- 77.7 16.8
08/20/2018 18:00 457.23 0.00 -- 82.0 17.0
08/20/2018 17:00 457.23 0.00 -- 76.5 17.0
08/20/2018 16:00 457.23 0.00 -- 81.0 17.0
08/20/2018 15:00 457.23 0.00 -- 75.8 17.0
08/20/2018 14:00 457.23 0.00 -- 77.3 17.0
08/20/2018 13:00 457.23 0.00 -- 75.9 17.0
08/20/2018 12:00 457.23 0.00 -- 71.8 17.0
08/20/2018 11:00 457.23 0.00 -- 65.8 17.0
08/20/2018 10:00 457.23 0.00 -- 63.0 17.0
08/20/2018 09:00 457.23 0.00 -- 58.9 17.0
08/20/2018 08:00 457.23 0.00 -- 56.9 17.0
08/20/2018 07:00 457.23 0.00 -- 56.7 17.0
08/20/2018 06:00 457.23 0.00 -- 58.2 17.0
08/20/2018 05:00 457.24 0.00 -- 57.6 17.5
08/20/2018 04:00 457.24 0.00 -- 58.5 18.0
08/20/2018 03:00 457.24 0.00 -- 58.7 18.0
08/20/2018 02:00 457.24 0.00 -- 60.1 18.0
08/20/2018 01:00 457.24 0.00 -- 61.0 18.0
08/20/2018 00:00 457.24 0.00 0.00 61.3 18.0
08/19/2018 23:00 457.24 0.00 -- 62.9 18.0
08/19/2018 22:00 457.25 0.00 -- 65.8 18.0
08/19/2018 21:00 457.25 0.00 -- 68.5 19.0
08/19/2018 20:00 457.25 0.00 -- 74.8 18.5
08/19/2018 19:00 457.25 0.00 -- 78.8 18.8
08/19/2018 18:00 457.25 0.00 -- 78.2 18.5
08/19/2018 17:00 457.25 0.00 -- 77.8 18.8
08/19/2018 16:00 457.25 0.00 -- 77.4 18.3
08/19/2018 15:00 457.25 0.00 -- 80.4 18.0
08/19/2018 14:00 457.25 0.00 -- 77.5 18.5
08/19/2018 13:00 457.25 0.00 -- 78.5 18.0
08/19/2018 12:00 457.25 0.00 -- 74.1 18.3
08/19/2018 11:00 457.25 0.00 -- 74.4 18.0
08/19/2018 10:00 457.25 0.00 -- 66.7 18.0
08/19/2018 09:00 457.25 0.00 -- 60.9 18.0
08/19/2018 08:00 457.25 0.00 -- 57.7 18.3
08/19/2018 07:00 457.25 0.00 -- 57.2 19.0
08/19/2018 06:00 457.25 0.00 -- 58.5 19.0
08/19/2018 05:00 457.25 0.00 -- 59.8 19.0
08/19/2018 04:00 457.25 0.00 -- 61.0 19.0
08/19/2018 03:00 457.25 0.00 -- 62.3 19.0
08/19/2018 02:00 457.25 0.00 -- 63.6 19.0
08/19/2018 01:00 457.25 0.00 -- 65.0 19.0
08/19/2018 00:00 457.25 0.00 0.00 66.6 19.0
08/18/2018 23:00 457.25 0.00 -- 67.9 19.0
08/18/2018 22:00 457.25 0.00 -- 68.5 19.0
08/18/2018 21:00 457.25 0.00 -- 67.9 18.8
08/18/2018 20:00 457.25 0.00 -- 67.9 18.0
08/18/2018 19:00 457.25 0.00 -- 69.8 19.0
08/18/2018 18:00 457.25 0.00 -- 72.2 19.0
08/18/2018 17:00 457.25 0.00 -- 72.7 19.0
08/18/2018 16:00 457.25 0.00 -- 74.1 19.0
08/18/2018 15:00 457.25 0.00 -- 79.4 19.0
08/18/2018 14:00 457.25 0.00 -- 79.1 19.0
08/18/2018 13:00 457.26 0.00 -- 76.1 19.0
08/18/2018 12:00 457.25 0.00 -- 75.2 19.0
08/18/2018 11:00 457.25 0.00 -- 74.2 18.3
08/18/2018 10:00 457.24 0.02 -- 71.3 18.0
08/18/2018 09:00 457.25 0.02 -- 70.3 18.0
08/18/2018 08:00 457.24 0.00 -- 71.2 18.0
08/18/2018 07:00 457.24 0.00 -- 70.2 18.0
08/18/2018 06:00 457.24 0.01 -- 67.9 18.0
08/18/2018 05:00 457.24 0.00 -- 68.9 18.0
08/18/2018 04:00 457.24 0.00 -- 69.3 18.0
08/18/2018 03:00 457.25 0.00 -- 69.4 18.0
08/18/2018 02:00 457.25 0.24 -- 70.0 17.8
08/18/2018 01:00 457.22 0.14 -- 69.0 15.5
08/18/2018 00:00 457.21 0.11 0.43 69.8 14.3
08/17/2018 23:00 457.19 0.00 -- 71.1 14.0
08/17/2018 22:00 457.19 0.00 -- 72.3 14.0
08/17/2018 21:00 457.20 0.00 -- 73.5 14.0
08/17/2018 20:00 457.20 0.00 -- 75.5 14.0
08/17/2018 19:00 457.20 0.00 -- 76.9 14.0
08/17/2018 18:00 457.20 0.00 -- 77.8 14.0
08/17/2018 17:00 457.20 0.00 -- 77.5 14.5
08/17/2018 16:00 457.20 0.00 -- 79.5 15.0
08/17/2018 15:00 457.20 0.00 -- 79.1 15.0
08/17/2018 14:00 457.20 0.00 -- 78.7 14.3
08/17/2018 13:00 457.21 0.00 -- 76.3 15.0
08/17/2018 12:00 457.20 0.00 -- 76.0 14.0
08/17/2018 11:00 457.20 0.00 -- 72.7 14.0
08/17/2018 10:00 457.20 0.00 -- 63.9 14.0
08/17/2018 09:00 457.20 0.00 -- 59.1 14.0
08/17/2018 08:00 457.20 0.00 -- 55.7 14.0
08/17/2018 07:00 457.20 0.00 -- 56.1 14.5
08/17/2018 06:00 457.20 0.00 -- 56.2 15.0
08/17/2018 05:00 457.21 0.00 -- 56.6 15.0
08/17/2018 04:00 457.21 0.00 -- 57.1 15.0
08/17/2018 03:00 457.21 0.00 -- 58.4 15.0
08/17/2018 02:00 457.21 0.00 -- 58.7 15.0
08/17/2018 01:00 457.21 0.00 -- 60.4 15.0
08/17/2018 00:00 457.22 0.00 0.11 60.8 15.5
08/16/2018 23:00 457.21 0.00 -- 63.3 15.8
08/16/2018 22:00 457.22 0.00 -- 65.6 16.0
08/16/2018 21:00 457.22 0.00 -- 71.7 16.0
08/16/2018 20:00 457.22 0.00 -- 76.3 16.0
08/16/2018 19:00 457.22 0.00 -- 79.9 16.5
08/16/2018 18:00 457.23 0.00 -- 81.7 16.3
08/16/2018 17:00 457.23 0.00 -- 83.2 17.0
08/16/2018 16:00 457.23 0.00 -- 82.5 16.5
08/16/2018 15:00 457.22 0.00 -- 82.2 16.8
08/16/2018 14:00 457.23 0.00 -- 81.6 17.0
08/16/2018 13:00 457.23 0.00 -- 81.3 17.0
08/16/2018 12:00 457.23 0.00 -- 80.1 17.0
08/16/2018 11:00 457.23 0.00 -- 78.0 17.0
08/16/2018 10:00 457.23 0.00 -- 74.9 17.0
08/16/2018 09:00 457.23 0.00 -- 70.5 17.0
08/16/2018 08:00 457.23 0.00 -- 68.3 17.0
08/16/2018 07:00 457.24 0.00 -- 68.2 17.5
08/16/2018 06:00 457.24 0.00 -- 67.8 17.0
08/16/2018 05:00 457.24 0.00 -- 67.5 17.8
08/16/2018 04:00 457.24 0.00 -- 68.5 18.0
08/16/2018 03:00 457.24 0.00 -- 69.2 18.0
08/16/2018 02:00 457.24 0.02 -- 71.0 17.8
08/16/2018 01:00 457.24 0.00 -- 71.9 17.5
08/16/2018 00:00 457.24 0.00 0.02 71.7 18.0
08/15/2018 23:00 457.24 0.00 -- 71.9 17.8
08/15/2018 22:00 457.24 0.00 -- 73.0 18.0
08/15/2018 21:00 457.24 0.00 -- 74.3 18.0
08/15/2018 20:00 457.24 0.00 -- 81.1 18.0
08/15/2018 19:00 457.24 0.00 -- 83.9 18.0
08/15/2018 18:00 457.25 0.00 -- 83.3 18.0
08/15/2018 17:00 457.25 0.00 -- 87.3 18.0
08/15/2018 16:00 457.25 0.00 -- 85.2 18.0
08/15/2018 15:00 457.25 0.00 -- 85.5 18.8
08/15/2018 14:00 457.25 0.00 -- 84.6 18.3
08/15/2018 13:00 457.25 0.00 -- 79.4 18.8
08/15/2018 12:00 457.25 0.00 -- 80.6 18.0
08/15/2018 11:00 457.25 0.00 -- 74.0 18.0
08/15/2018 10:00 457.24 0.00 -- 70.3 18.0
08/15/2018 09:00 457.24 0.00 -- 69.1 18.0
08/15/2018 08:00 457.25 0.00 -- 66.8 18.0
08/15/2018 07:00 457.25 0.00 -- 66.3 18.0
08/15/2018 06:00 457.25 0.00 -- 67.0 18.0
08/15/2018 05:00 457.25 0.00 -- 69.1 18.3
08/15/2018 04:00 457.25 0.00 -- 69.1 19.0
08/15/2018 03:00 457.25 0.00 -- 70.7 19.0
08/15/2018 02:00 457.25 0.00 -- 70.7 19.0
08/15/2018 01:00 457.26 0.00 -- 70.6 19.0
08/15/2018 00:00 457.26 0.00 0.00 71.5 19.0
08/14/2018 23:00 457.26 0.00 -- 72.2 19.0
08/14/2018 22:00 457.26 0.00 -- 73.3 19.0
08/14/2018 21:00 457.26 0.00 -- 75.8 19.0
08/14/2018 20:00 457.26 0.00 -- 80.0 19.0
08/14/2018 19:00 457.25 0.00 -- 78.9 19.0
08/14/2018 18:00 457.26 0.00 -- 81.8 19.3
08/14/2018 17:00 457.26 0.00 -- 83.1 19.3
08/14/2018 16:00 457.26 0.00 -- 82.4 19.3
08/14/2018 15:00 457.25 0.00 -- 81.0 19.0
08/14/2018 14:00 457.25 0.00 -- 78.0 19.0
08/14/2018 13:00 457.25 0.00 -- 73.0 19.0
08/14/2018 12:00 457.25 0.01 -- 71.6 18.5
08/14/2018 11:00 457.25 0.05 -- 70.5 18.0
08/14/2018 10:00 457.24 0.25 -- 69.8 16.8
08/14/2018 09:00 457.22 0.02 -- 69.7 16.0
08/14/2018 08:00 457.22 0.01 -- 69.1 16.0
08/14/2018 07:00 457.22 0.00 -- 69.5 16.0
08/14/2018 06:00 457.22 0.01 -- 69.1 16.0
08/14/2018 05:00 457.22 0.01 -- 69.2 15.8
08/14/2018 04:00 457.22 0.00 -- 69.2 15.5
08/14/2018 03:00 457.22 0.00 -- 69.4 15.8
08/14/2018 02:00 457.22 0.00 -- 69.7 15.8
08/14/2018 01:00 457.21 0.00 -- 69.8 15.5
08/14/2018 00:00 457.22 0.00 0.36 70.2 16.0
08/13/2018 23:00 457.22 0.00 -- 70.6 16.0
08/13/2018 22:00 457.22 0.00 -- 71.3 16.0
08/13/2018 21:00 457.22 0.00 -- 72.6 16.0
08/13/2018 20:00 457.22 0.00 -- 73.9 16.0
08/13/2018 19:00 457.22 0.00 -- 74.4 16.0
08/13/2018 18:00 457.22 0.00 -- 74.4 16.0
08/13/2018 17:00 457.22 0.00 -- 74.2 15.8
08/13/2018 16:00 457.22 0.00 -- 72.0 16.0
08/13/2018 15:00 457.22 0.00 -- 71.3 16.0
08/13/2018 14:00 457.22 0.02 -- 70.0 15.8
08/13/2018 13:00 457.21 0.01 -- 69.6 15.0
08/13/2018 12:00 457.21 0.00 -- 68.9 15.0
08/13/2018 11:00 457.21 0.00 -- 67.9 15.0
08/13/2018 10:00 457.21 0.00 -- 66.5 15.0
08/13/2018 09:00 457.21 0.00 -- 65.6 15.0
08/13/2018 08:00 457.21 0.00 -- 65.2 15.0
08/13/2018 07:00 457.21 0.00 -- 64.7 15.0
08/13/2018 06:00 457.21 0.00 -- 64.3 15.0
08/13/2018 05:00 457.21 0.00 -- 65.7 15.0
08/13/2018 04:00 457.21 0.00 -- 65.4 15.0
08/13/2018 03:00 457.21 0.00 -- 65.9 15.0
08/13/2018 02:00 457.21 0.00 -- 66.2 15.3
08/13/2018 01:00 457.21 0.00 -- 67.3 15.3
08/13/2018 00:00 457.22 0.00 0.03 68.2 15.8
08/12/2018 23:00 457.21 0.00 -- 67.8 15.8
08/12/2018 22:00 457.22 0.00 -- 68.2 15.8
08/12/2018 21:00 457.21 0.00 -- 68.5 15.8
08/12/2018 20:00 457.22 0.00 -- 68.2 16.0
08/12/2018 19:00 457.22 0.01 -- 68.6 16.0
08/12/2018 18:00 457.22 0.00 -- 68.9 16.0
08/12/2018 17:00 457.22 0.00 -- 69.6 16.0
08/12/2018 16:00 457.22 0.00 -- 67.5 16.0
08/12/2018 15:00 457.22 0.00 -- 66.7 16.0
08/12/2018 14:00 457.22 0.03 -- 65.8 16.0
08/12/2018 13:00 457.22 0.01 -- 65.8 15.8
08/12/2018 12:00 457.21 0.00 -- 66.1 15.0
08/12/2018 11:00 457.21 0.00 -- 65.5 15.0
08/12/2018 10:00 457.21 0.00 -- 65.0 15.5
08/12/2018 09:00 457.21 0.00 -- 64.9 15.5
08/12/2018 08:00 457.22 0.01 -- 64.8 16.0
08/12/2018 07:00 457.22 0.00 -- 64.8 16.0
08/12/2018 06:00 457.22 0.13 -- 64.5 15.5
08/12/2018 05:00 457.21 0.16 -- 65.1 14.5
08/12/2018 04:00 457.19 0.02 -- 64.4 14.0
08/12/2018 03:00 457.19 0.01 -- 65.6 14.0
08/12/2018 02:00 457.19 0.00 -- 65.0 14.0
08/12/2018 01:00 457.19 0.00 -- 65.9 14.0
08/12/2018 00:00 457.20 0.00 0.38 66.3 14.0
08/11/2018 23:00 457.20 0.00 -- 65.7 14.0
08/11/2018 22:00 457.20 0.01 -- 66.5 14.0
08/11/2018 21:00 457.20 0.00 -- 67.3 14.0
08/11/2018 20:00 457.20 0.00 -- 71.2 14.0
08/11/2018 19:00 457.20 0.00 -- 72.9 14.0
08/11/2018 18:00 457.20 0.00 -- 73.8 14.0
08/11/2018 17:00 457.20 0.00 -- 73.6 14.0
08/11/2018 16:00 457.20 0.00 -- 73.8 14.3
08/11/2018 15:00 457.20 0.00 -- 75.0 15.0
08/11/2018 14:00 457.20 0.00 -- 76.7 15.0
08/11/2018 13:00 457.21 0.00 -- 76.8 15.0
08/11/2018 12:00 457.21 0.00 -- 74.0 14.8
08/11/2018 11:00 457.20 0.00 -- 68.2 14.8
08/11/2018 10:00 457.20 0.00 -- 64.9 14.3
08/11/2018 09:00 457.20 0.00 -- 61.0 15.0
08/11/2018 08:00 457.21 0.00 -- 57.8 15.0
08/11/2018 07:00 457.21 0.00 -- 57.0 15.0
08/11/2018 06:00 457.21 0.00 -- 57.2 15.0
08/11/2018 05:00 457.21 0.00 -- 57.4 15.0
08/11/2018 04:00 457.21 0.00 -- 57.2 15.0
08/11/2018 03:00 457.21 0.00 -- 57.5 15.3
08/11/2018 02:00 457.21 0.00 -- 57.1 15.8
08/11/2018 01:00 457.22 0.00 -- 60.9 16.0
08/11/2018 00:00 457.22 0.00 0.01 62.5 16.0
08/10/2018 23:00 457.22 0.00 -- 64.9 16.0
08/10/2018 22:00 457.22 0.00 -- 66.1 16.0
08/10/2018 21:00 457.23 0.00 -- 70.2 16.5
08/10/2018 20:00 457.23 0.00 -- 75.7 17.0
08/10/2018 19:00 457.23 0.00 -- 79.9 17.0
08/10/2018 18:00 457.23 0.00 -- 81.2 17.0
08/10/2018 17:00 457.23 0.00 -- 81.4 17.0
08/10/2018 16:00 457.23 0.00 -- 81.6 17.0
08/10/2018 15:00 457.24 0.00 -- 81.4 17.8
08/10/2018 14:00 457.25 0.00 -- 79.2 18.0
08/10/2018 13:00 457.24 0.00 -- 78.3 17.5
08/10/2018 12:00 457.25 0.00 -- 77.2 18.0
08/10/2018 11:00 457.25 0.00 -- 75.5 18.3
08/10/2018 10:00 457.24 0.00 -- 73.6 18.8
08/10/2018 09:00 457.24 0.00 -- 72.3 18.0
08/10/2018 08:00 457.25 0.00 -- 66.8 18.0
08/10/2018 07:00 457.25 0.00 -- 66.8 18.0
08/10/2018 06:00 457.25 0.00 -- 67.4 18.0
08/10/2018 05:00 457.25 0.00 -- 68.7 18.3
08/10/2018 04:00 457.25 0.00 -- 68.9 19.0
08/10/2018 03:00 457.25 0.00 -- 69.1 19.0
08/10/2018 02:00 457.26 0.00 -- 73.9 19.5
08/10/2018 01:00 457.26 0.00 -- 70.8 19.3
08/10/2018 00:00 457.26 0.00 0.00 70.6 19.3
08/09/2018 23:00 457.26 0.00 -- 73.2 20.0
08/09/2018 22:00 457.26 0.00 -- 73.5 20.0
08/09/2018 21:00 457.26 0.00 -- 75.1 20.0
08/09/2018 20:00 457.27 0.00 -- 79.0 20.8
08/09/2018 19:00 457.27 0.00 -- 82.7 20.3
08/09/2018 18:00 457.28 0.00 -- 87.0 21.0
08/09/2018 17:00 457.28 0.00 -- 88.8 20.8
08/09/2018 16:00 457.28 0.00 -- 85.1 21.0
08/09/2018 15:00 457.28 0.00 -- 88.9 21.0
08/09/2018 14:00 457.28 0.00 -- 83.1 21.3
08/09/2018 13:00 457.29 0.00 -- 82.4 21.8
08/09/2018 12:00 457.28 0.00 -- 80.3 21.5
08/09/2018 11:00 457.28 0.00 -- 80.3 21.3
08/09/2018 10:00 457.28 0.00 -- 75.9 21.0
08/09/2018 09:00 457.28 0.00 -- 73.7 21.8
08/09/2018 08:00 457.29 0.00 -- 73.1 22.0
08/09/2018 07:00 457.28 0.00 -- 72.7 22.0
08/09/2018 06:00 457.29 0.00 -- 73.7 22.0
08/09/2018 05:00 457.29 0.00 -- 73.1 22.0
08/09/2018 04:00 457.29 0.00 -- 72.7 22.0
08/09/2018 03:00 457.29 0.00 -- 73.3 22.3
08/09/2018 02:00 457.29 0.00 -- 73.5 22.3
08/09/2018 01:00 457.29 0.00 -- 73.4 23.0
08/09/2018 00:00 457.29 0.01 0.00 74.5 23.0
08/08/2018 23:00 457.29 0.00 -- 75.9 23.0
08/08/2018 22:00 457.30 0.00 -- 76.2 23.0
08/08/2018 21:00 457.30 0.00 -- 76.3 23.3
08/08/2018 20:00 457.30 0.00 -- 80.3 23.0
08/08/2018 19:00 457.30 0.00 -- 83.9 23.0
08/08/2018 18:00 457.30 0.00 -- 86.3 23.3
08/08/2018 17:00 457.30 0.00 -- 90.0 23.5
08/08/2018 16:00 457.31 0.00 -- 87.4 24.0
08/08/2018 15:00 457.31 0.00 -- 87.9 24.0
08/08/2018 14:00 457.31 0.00 -- 81.6 24.0
08/08/2018 13:00 457.31 0.00 -- 84.3 24.0
08/08/2018 12:00 457.31 0.00 -- 82.9 24.0
08/08/2018 11:00 457.31 0.00 -- 78.2 24.0
08/08/2018 10:00 457.31 0.00 -- 75.4 24.0
08/08/2018 09:00 457.31 0.00 -- 71.1 24.0
08/08/2018 08:00 457.31 0.00 -- 67.2 24.0
08/08/2018 07:00 457.31 0.00 -- 66.9 24.0
08/08/2018 06:00 457.31 0.00 -- 67.5 24.0
08/08/2018 05:00 457.32 0.00 -- 68.4 25.0
08/08/2018 04:00 457.32 0.00 -- 69.7 25.0
08/08/2018 03:00 457.32 0.00 -- 70.2 25.0
08/08/2018 02:00 457.32 0.00 -- 71.6 25.0
08/08/2018 01:00 457.32 0.00 -- 71.7 25.0
08/08/2018 00:00 457.32 0.00 0.01 73.5 25.8
08/07/2018 23:00 457.33 0.00 -- 73.3 26.0
08/07/2018 22:00 457.33 0.00 -- 74.5 26.3
08/07/2018 21:00 457.34 0.01 -- 74.7 26.8
08/07/2018 20:00 457.33 0.01 -- 76.0 26.8
08/07/2018 19:00 457.34 0.00 -- 76.5 27.0
08/07/2018 18:00 457.34 0.00 -- 77.6 27.0
08/07/2018 17:00 457.35 0.23 -- 76.6 26.8
08/07/2018 16:00 457.33 0.00 -- 89.5 26.8
08/07/2018 15:00 457.33 0.00 -- 88.2 26.8
08/07/2018 14:00 457.35 0.00 -- 89.8 27.3
08/07/2018 13:00 457.33 0.00 -- 89.8 26.8
08/07/2018 12:00 457.34 0.00 -- 88.2 27.0
08/07/2018 11:00 457.34 0.00 -- 87.0 27.0
08/07/2018 10:00 457.35 0.00 -- 80.9 27.3
08/07/2018 09:00 457.34 0.00 -- 75.5 27.0
08/07/2018 08:00 457.35 0.00 -- 70.4 28.0
08/07/2018 07:00 457.35 0.00 -- 69.3 28.0
08/07/2018 06:00 457.35 0.00 -- 70.2 28.0
08/07/2018 05:00 457.35 0.00 -- 70.4 28.8
08/07/2018 04:00 457.36 0.00 -- 71.1 29.0
08/07/2018 03:00 457.36 0.00 -- 71.2 29.0
08/07/2018 02:00 457.36 0.00 -- 72.5 29.3
08/07/2018 01:00 457.36 0.00 -- 73.3 30.0
08/07/2018 00:00 457.37 0.00 0.25 74.0 30.0
08/06/2018 23:00 457.37 0.00 -- 76.8 30.8
08/06/2018 22:00 457.38 0.00 -- 79.1 31.5
08/06/2018 21:00 457.38 0.00 -- 83.4 32.0
08/06/2018 20:00 457.39 0.00 -- 88.3 32.0
08/06/2018 19:00 457.39 0.00 -- 91.4 32.8
08/06/2018 18:00 457.40 0.00 -- 91.5 33.3
08/06/2018 17:00 457.41 0.00 -- 91.8 34.5
08/06/2018 16:00 457.41 0.00 -- 92.3 34.3
08/06/2018 15:00 457.41 0.00 -- 92.5 34.5
08/06/2018 14:00 457.41 0.00 -- 90.6 34.5
08/06/2018 13:00 457.41 0.00 -- 90.1 35.0
08/06/2018 12:00 457.41 0.00 -- 86.8 35.0
08/06/2018 11:00 457.42 0.00 -- 83.1 35.0
08/06/2018 10:00 457.42 0.00 -- 75.3 35.0
08/06/2018 09:00 457.42 0.00 -- 71.5 35.3
08/06/2018 08:00 457.42 0.00 -- 65.7 36.0
08/06/2018 07:00 457.43 0.00 -- 64.9 36.0
08/06/2018 06:00 457.43 0.00 -- 66.4 36.5
08/06/2018 05:00 457.43 0.00 -- 66.9 37.0
08/06/2018 04:00 457.44 0.00 -- 67.9 37.0
08/06/2018 03:00 457.44 0.00 -- 67.5 37.8
08/06/2018 02:00 457.44 0.00 -- 69.1 38.0
08/06/2018 01:00 457.45 0.00 -- 70.6 38.0
08/06/2018 00:00 457.45 0.00 0.00 71.5 38.8
08/05/2018 23:00 457.45 0.00 -- 72.9 39.0
08/05/2018 22:00 457.45 0.00 -- 75.4 39.0
08/05/2018 21:00 457.46 0.00 -- 80.1 40.0
08/05/2018 20:00 457.46 0.00 -- 82.7 40.0
08/05/2018 19:00 457.46 0.00 -- 88.0 40.3
08/05/2018 18:00 457.46 0.00 -- 90.8 40.3
08/05/2018 17:00 457.46 0.00 -- 91.2 40.3
08/05/2018 16:00 457.47 0.00 -- 88.8 41.0
08/05/2018 15:00 457.47 0.00 -- 88.2 41.0
08/05/2018 14:00 457.47 0.00 -- 89.2 41.0
08/05/2018 13:00 457.47 0.00 -- 88.1 40.8
08/05/2018 12:00 457.47 0.00 -- 83.4 40.3
08/05/2018 11:00 457.47 0.00 -- 79.8 40.8
08/05/2018 10:00 457.46 0.00 -- 72.1 40.0
08/05/2018 09:00 457.46 0.00 -- 67.3 40.0
08/05/2018 08:00 457.46 0.00 -- 62.5 40.0
08/05/2018 07:00 457.46 0.00 -- 62.1 40.0
08/05/2018 06:00 457.46 0.00 -- 62.1 39.0
08/05/2018 05:00 457.45 0.00 -- 62.9 39.0
08/05/2018 04:00 457.45 0.00 -- 63.5 39.0
08/05/2018 03:00 457.45 0.00 -- 64.5 38.3
08/05/2018 02:00 457.44 0.00 -- 65.3 38.0
08/05/2018 01:00 457.44 0.00 -- 66.7 37.0
08/05/2018 00:00 457.43 0.00 0.00 68.4 36.5
08/04/2018 23:00 457.42 0.00 -- 69.6 35.8
08/04/2018 22:00 457.42 0.00 -- 71.0 35.0
08/04/2018 21:00 457.41 0.00 -- 72.3 33.8
08/04/2018 20:00 457.40 0.00 -- 75.1 32.5
08/04/2018 19:00 457.38 0.00 -- 79.1 31.3
08/04/2018 18:00 457.37 0.00 -- 79.6 29.8
08/04/2018 17:00 457.36 0.00 -- 75.3 28.3
08/04/2018 16:00 457.34 0.00 -- 72.2 26.8
08/04/2018 15:00 457.33 0.00 -- 72.0 25.8
08/04/2018 14:00 457.31 0.38 -- 68.2 22.8
08/04/2018 13:00 457.26 0.67 -- 66.8 17.5
08/04/2018 12:00 457.20 0.12 -- 67.6 13.3
08/04/2018 11:00 457.19 0.08 -- 67.8 12.8
08/04/2018 10:00 457.18 0.09 -- 71.6 12.3
08/04/2018 09:00 457.17 0.03 -- 72.2 12.0
08/04/2018 08:00 457.17 0.00 -- 71.8 12.0
08/04/2018 07:00 457.17 0.00 -- 71.0 12.0
08/04/2018 06:00 457.17 0.00 -- 71.2 12.0
08/04/2018 05:00 457.17 0.00 -- 71.4 12.0
08/04/2018 04:00 457.17 0.00 -- 71.3 12.0
08/04/2018 03:00 457.17 0.00 -- 72.3 12.0
08/04/2018 02:00 457.18 0.00 -- 72.5 12.0
08/04/2018 01:00 457.18 0.00 -- 72.0 12.0
08/04/2018 00:00 457.18 0.01 1.37 73.4 12.0
08/03/2018 23:00 457.18 0.00 -- 72.5 12.0
08/03/2018 22:00 457.18 0.00 -- 73.0 12.0
08/03/2018 21:00 457.18 0.00 -- 74.6 12.0
08/03/2018 20:00 457.18 0.00 -- 74.8 12.3
08/03/2018 19:00 457.18 0.07 -- 74.8 12.0
08/03/2018 18:00 457.17 0.02 -- 77.2 12.0
08/03/2018 17:00 457.17 0.00 -- 85.3 12.0
08/03/2018 16:00 457.17 0.00 -- 86.1 12.0
08/03/2018 15:00 457.17 0.00 -- 83.5 12.0
08/03/2018 14:00 457.17 0.00 -- 80.5 12.0
08/03/2018 13:00 457.17 0.00 -- 83.7 12.0
08/03/2018 12:00 457.17 0.00 -- 77.8 12.0
08/03/2018 11:00 457.17 0.00 -- 80.4 12.0
08/03/2018 10:00 457.17 0.00 -- 74.5 12.0
08/03/2018 09:00 457.17 0.00 -- 72.5 12.0
08/03/2018 08:00 457.17 0.00 -- 68.5 12.0
08/03/2018 07:00 457.17 0.00 -- 67.7 12.0
08/03/2018 06:00 457.17 0.00 -- 69.2 12.0
08/03/2018 05:00 457.17 0.00 -- 69.0 12.0
08/03/2018 04:00 457.17 0.00 -- 69.2 12.0
08/03/2018 03:00 457.18 0.00 -- 68.9 12.0
08/03/2018 02:00 457.18 0.00 -- 69.9 12.0
08/03/2018 01:00 457.18 0.00 -- 71.4 12.0
08/03/2018 00:00 457.18 0.00 0.10 72.4 12.0
08/02/2018 23:00 457.18 0.00 -- 74.1 12.8
08/02/2018 22:00 457.18 0.00 -- 78.7 13.0
08/02/2018 21:00 457.18 0.00 -- 80.4 13.0
08/02/2018 20:00 457.18 0.00 -- 82.8 13.0
08/02/2018 19:00 457.19 0.00 -- 87.5 13.0
08/02/2018 18:00 457.20 0.00 -- 86.0 13.5
08/02/2018 17:00 457.20 0.00 -- 86.5 14.0
08/02/2018 16:00 457.20 0.00 -- 87.0 14.0
08/02/2018 15:00 457.20 0.00 -- 87.6 13.8
08/02/2018 14:00 457.20 0.00 -- 84.6 13.8
08/02/2018 13:00 457.20 0.00 -- 84.7 13.8
08/02/2018 12:00 457.19 0.00 -- 82.1 13.3
08/02/2018 11:00 457.19 0.00 -- 79.0 13.3
08/02/2018 10:00 457.19 0.00 -- 75.7 13.0
08/02/2018 09:00 457.19 0.00 -- 71.6 13.0
08/02/2018 08:00 457.19 0.00 -- 71.3 13.0
08/02/2018 07:00 457.19 0.00 -- 70.2 13.0
08/02/2018 06:00 457.18 0.00 -- 68.8 13.0
08/02/2018 05:00 457.19 0.01 -- 69.8 13.3
08/02/2018 04:00 457.19 0.00 -- 68.7 14.0
08/02/2018 03:00 457.19 0.00 -- 69.3 14.0
08/02/2018 02:00 457.20 0.00 -- 69.1 14.0
08/02/2018 01:00 457.20 0.00 -- 69.6 14.0
08/02/2018 00:00 457.20 0.00 0.01 69.6 14.0
08/01/2018 23:00 457.20 0.01 -- 69.8 14.0
08/01/2018 22:00 457.20 0.01 -- 69.8 14.0
08/01/2018 21:00 457.20 0.09 -- 69.7 13.8
08/01/2018 20:00 457.19 0.18 -- 70.3 12.8
08/01/2018 19:00 457.18 0.08 -- 70.8 12.0
08/01/2018 18:00 457.17 0.01 -- 71.6 12.0
08/01/2018 17:00 457.17 0.00 -- 77.1 12.0
08/01/2018 16:00 457.17 0.00 -- 79.1 12.0
08/01/2018 15:00 457.17 0.00 -- 78.3 12.0
08/01/2018 14:00 457.17 0.00 -- 77.7 12.0
08/01/2018 13:00 457.17 0.00 -- 80.1 12.0
08/01/2018 12:00 457.17 0.00 -- 80.3 12.0
08/01/2018 11:00 457.17 0.00 -- 78.3 12.0
08/01/2018 10:00 457.17 0.00 -- 74.5 12.0
08/01/2018 09:00 457.17 0.00 -- 69.7 12.0
08/01/2018 08:00 457.17 0.00 -- 65.2 12.0
08/01/2018 07:00 457.17 0.00 -- 63.0 12.0
08/01/2018 06:00 457.17 0.00 -- 63.1 12.0
08/01/2018 05:00 457.18 0.00 -- 64.0 12.0
08/01/2018 04:00 457.18 0.00 -- 65.0 12.3
08/01/2018 03:00 457.18 0.00 -- 66.9 13.0
08/01/2018 02:00 457.18 0.00 -- 68.0 13.0
08/01/2018 01:00 457.18 0.00 -- 68.4 13.0
08/01/2018 00:00 457.18 0.00 0.38 68.0 13.0
07/31/2018 23:00 457.18 0.00 -- 69.5 13.0
07/31/2018 22:00 457.19 0.00 -- 73.1 13.0
07/31/2018 21:00 457.19 0.00 -- 79.4 13.0
07/31/2018 20:00 457.19 0.00 -- 83.5 13.3
07/31/2018 19:00 457.19 0.00 -- 86.3 13.5
07/31/2018 18:00 457.19 0.00 -- 88.1 13.0
07/31/2018 17:00 457.19 0.00 -- 90.0 13.5
07/31/2018 16:00 457.19 0.00 -- 84.2 14.0
07/31/2018 15:00 457.20 0.00 -- 84.0 14.0
07/31/2018 14:00 457.20 0.00 -- 82.4 14.0
07/31/2018 13:00 457.19 0.00 -- 79.0 14.0
07/31/2018 12:00 457.20 0.00 -- 76.3 14.0
07/31/2018 11:00 457.19 0.00 -- 74.6 14.0
07/31/2018 10:00 457.19 0.00 -- 67.8 14.0
07/31/2018 09:00 457.19 0.00 -- 65.1 14.0
07/31/2018 08:00 457.20 0.00 -- 62.5 14.0
07/31/2018 07:00 457.20 0.00 -- 62.9 14.0
07/31/2018 06:00 457.20 0.00 -- 62.1 14.0
07/31/2018 05:00 457.20 0.00 -- 60.0 14.0
07/31/2018 04:00 457.20 0.00 -- 61.2 14.0
07/31/2018 03:00 457.20 0.00 -- 61.6 14.5
07/31/2018 02:00 457.20 0.00 -- 62.5 15.0
07/31/2018 01:00 457.21 0.00 -- 64.2 15.0
07/31/2018 00:00 457.21 0.00 0.00 65.0 15.0
07/30/2018 23:00 457.21 0.00 -- 67.8 15.0
07/30/2018 22:00 457.21 0.00 -- 71.3 15.0
07/30/2018 21:00 457.21 0.00 -- 75.2 15.8
07/30/2018 20:00 457.22 0.00 -- 77.1 16.0
07/30/2018 19:00 457.22 0.00 -- 79.1 16.0
07/30/2018 18:00 457.23 0.00 -- 81.5 16.5
07/30/2018 17:00 457.23 0.00 -- 81.8 16.3
07/30/2018 16:00 457.23 0.00 -- 82.4 16.3
07/30/2018 15:00 457.23 0.00 -- 83.8 16.8
07/30/2018 14:00 457.23 0.00 -- 81.4 16.3
07/30/2018 13:00 457.23 0.00 -- 78.2 16.5
07/30/2018 12:00 457.23 0.00 -- 75.2 17.0
07/30/2018 11:00 457.23 0.00 -- 70.0 16.0
07/30/2018 10:00 457.22 0.00 -- 69.3 16.0
07/30/2018 09:00 457.22 0.00 -- 64.4 16.3
07/30/2018 08:00 457.23 0.00 -- 58.2 16.8
07/30/2018 07:00 457.23 0.00 -- 56.5 17.0
07/30/2018 06:00 457.23 0.00 -- 59.4 17.0
07/30/2018 05:00 457.23 0.00 -- 57.1 17.0
07/30/2018 04:00 457.23 0.00 -- 58.8 17.0
07/30/2018 03:00 457.24 0.00 -- 60.1 17.0
07/30/2018 02:00 457.24 0.00 -- 60.4 17.5
07/30/2018 01:00 457.24 0.00 -- 61.1 18.0
07/30/2018 00:00 457.24 0.00 0.00 65.5 18.0
07/29/2018 23:00 457.24 0.00 -- 65.8 18.0
07/29/2018 22:00 457.25 0.00 -- 69.9 18.3
07/29/2018 21:00 457.25 0.00 -- 72.3 18.8
07/29/2018 20:00 457.25 0.00 -- 76.8 19.0
07/29/2018 19:00 457.26 0.00 -- 76.7 19.0
07/29/2018 18:00 457.26 0.00 -- 82.6 19.0
07/29/2018 17:00 457.26 0.00 -- 82.6 20.0
07/29/2018 16:00 457.26 0.00 -- 79.5 19.0
07/29/2018 15:00 457.26 0.00 -- 80.3 19.5
07/29/2018 14:00 457.26 0.00 -- 80.2 20.0
07/29/2018 13:00 457.26 0.00 -- 78.2 20.0
07/29/2018 12:00 457.27 0.00 -- 76.6 20.0
07/29/2018 11:00 457.27 0.00 -- 79.4 20.0
07/29/2018 10:00 457.27 0.00 -- 74.3 20.0
07/29/2018 09:00 457.27 0.00 -- 65.4 20.0
07/29/2018 08:00 457.27 0.00 -- 64.7 20.0
07/29/2018 07:00 457.27 0.00 -- 63.8 --
07/29/2018 06:00 457.27 -- -- 63.6 21.0
07/29/2018 05:00 457.27 -- -- 65.5 21.0
07/29/2018 04:00 457.28 0.00 -- 67.4 21.0
07/29/2018 03:00 457.28 0.00 -- 68.0 21.0
07/29/2018 02:00 457.28 0.00 -- 70.3 21.7
07/29/2018 01:00 457.28 0.00 -- 71.7 22.0
07/29/2018 00:00 457.29 0.00 -- 72.0 22.0
07/28/2018 23:00 457.29 0.00 -- 74.0 22.0
07/28/2018 22:00 457.29 0.00 -- 76.4 22.0
07/28/2018 21:00 457.29 0.00 -- 78.1 22.5
07/28/2018 20:00 457.29 0.00 -- 80.4 22.8
07/28/2018 19:00 457.29 0.00 -- 83.2 23.0
07/28/2018 18:00 457.30 0.00 -- 82.1 23.0
07/28/2018 17:00 457.30 0.00 -- 86.7 23.0
07/28/2018 16:00 457.30 0.00 -- 87.0 23.8
07/28/2018 15:00 457.30 0.00 -- 87.7 23.8
07/28/2018 14:00 457.31 0.00 -- 85.5 24.0
07/28/2018 13:00 457.31 0.00 -- 83.2 24.0
07/28/2018 12:00 457.31 0.00 -- 78.2 24.0
07/28/2018 11:00 457.31 0.00 -- 75.9 24.0
07/28/2018 10:00 457.31 0.01 -- 74.5 24.0
07/28/2018 09:00 457.31 0.00 -- 68.5 24.0
07/28/2018 08:00 457.31 0.00 -- 66.9 24.0
07/28/2018 07:00 457.31 0.00 -- 66.8 24.0
07/28/2018 06:00 457.31 0.00 -- 67.7 24.0
07/28/2018 05:00 457.31 0.00 -- 67.2 24.8
07/28/2018 04:00 457.32 0.00 -- 67.9 25.0
07/28/2018 03:00 457.32 0.00 -- 68.8 25.0
07/28/2018 02:00 457.32 0.00 -- 69.2 25.0
07/28/2018 01:00 457.32 0.00 -- 69.3 25.0
07/28/2018 00:00 457.32 0.00 0.01 70.3 25.0
07/27/2018 23:00 457.33 0.00 -- 71.1 26.0
07/27/2018 22:00 457.33 0.00 -- 70.8 26.0
07/27/2018 21:00 457.33 0.00 -- 72.2 26.0
07/27/2018 20:00 457.33 0.00 -- 72.1 26.0
07/27/2018 19:00 457.33 0.01 -- 71.0 26.0
07/27/2018 18:00 457.35 0.25 -- 70.3 26.0
07/27/2018 17:00 457.32 0.01 -- 76.4 25.3
07/27/2018 16:00 457.32 0.00 -- 82.9 25.8
07/27/2018 15:00 457.34 0.00 -- 88.2 25.8
07/27/2018 14:00 457.32 0.00 -- 86.8 25.5
07/27/2018 13:00 457.33 0.00 -- 82.8 26.0
07/27/2018 12:00 457.32 0.00 -- 81.9 25.0
07/27/2018 11:00 457.33 0.00 -- 79.2 25.3
07/27/2018 10:00 457.32 0.00 -- 71.4 25.0
07/27/2018 09:00 457.32 0.00 -- 67.8 25.3
07/27/2018 08:00 457.32 0.00 -- 65.2 25.0
07/27/2018 07:00 457.32 0.00 -- 63.5 25.3
07/27/2018 06:00 457.32 0.00 -- 64.2 25.0
07/27/2018 05:00 457.33 0.00 -- 65.0 25.5
07/27/2018 04:00 457.32 0.00 -- 66.4 25.0
07/27/2018 03:00 457.33 0.00 -- 66.7 26.0
07/27/2018 02:00 457.33 0.00 -- 67.9 26.0
07/27/2018 01:00 457.33 0.00 -- 69.7 26.0
07/27/2018 00:00 457.33 0.00 0.27 71.7 25.8
07/26/2018 23:00 457.33 0.00 -- 72.9 26.0
07/26/2018 22:00 457.33 0.00 -- 74.7 26.0
07/26/2018 21:00 457.33 0.00 -- 76.4 25.5
07/26/2018 20:00 457.33 0.00 -- 78.7 25.5
07/26/2018 19:00 457.32 0.00 -- 78.8 25.0
07/26/2018 18:00 457.32 0.00 -- 75.5 25.0
07/26/2018 17:00 457.32 0.02 -- 74.0 25.0
07/26/2018 16:00 457.33 0.07 -- 73.1 25.3
07/26/2018 15:00 457.31 0.01 -- 77.8 24.0
07/26/2018 14:00 457.31 0.00 -- 78.1 23.5
07/26/2018 13:00 457.30 0.01 -- 76.9 23.3
07/26/2018 12:00 457.31 0.00 -- 76.4 23.3
07/26/2018 11:00 457.30 0.00 -- 75.7 23.0
07/26/2018 10:00 457.30 0.00 -- 72.8 23.0
07/26/2018 09:00 457.30 0.06 -- 72.1 22.5
07/26/2018 08:00 457.29 0.01 -- 71.3 22.0
07/26/2018 07:00 457.29 0.01 -- 71.7 22.0
07/26/2018 06:00 457.29 0.04 -- 71.9 22.0
07/26/2018 05:00 457.28 0.01 -- 72.0 21.3
07/26/2018 04:00 457.28 0.03 -- 72.4 21.3
07/26/2018 03:00 457.28 0.03 -- 72.4 21.3
07/26/2018 02:00 457.27 0.10 -- 72.5 20.8
07/26/2018 01:00 457.27 0.03 -- 73.1 20.0
07/26/2018 00:00 457.27 0.26 0.43 73.1 19.3
07/25/2018 23:00 457.24 0.00 -- 74.8 18.0
07/25/2018 22:00 457.24 0.00 -- 75.4 18.0
07/25/2018 21:00 457.24 0.00 -- 76.2 18.0
07/25/2018 20:00 457.25 0.00 -- 76.6 18.0
07/25/2018 19:00 457.25 0.01 -- 76.9 18.3
07/25/2018 18:00 457.25 0.37 -- 75.8 18.3
07/25/2018 17:00 457.22 0.07 -- 76.7 15.5
07/25/2018 16:00 457.20 0.00 -- 82.4 15.0
07/25/2018 15:00 457.21 0.01 -- 81.3 15.0
07/25/2018 14:00 457.20 0.00 -- 84.7 15.0
07/25/2018 13:00 457.21 0.00 -- 81.2 14.5
07/25/2018 12:00 457.21 0.00 -- 81.8 15.0
07/25/2018 11:00 457.21 0.00 -- 78.4 15.0
07/25/2018 10:00 457.21 0.00 -- 75.3 15.0
07/25/2018 09:00 457.21 0.00 -- 72.4 15.0
07/25/2018 08:00 457.20 0.00 -- 71.3 15.0
07/25/2018 07:00 457.20 0.04 -- 70.8 14.5
07/25/2018 06:00 457.20 0.05 -- 71.6 14.0
07/25/2018 05:00 457.19 0.00 -- 71.3 14.0
07/25/2018 04:00 457.20 0.00 -- 71.1 14.0
07/25/2018 03:00 457.20 0.00 -- 70.7 14.0
07/25/2018 02:00 457.19 0.00 -- 70.5 14.0
07/25/2018 01:00 457.20 0.01 -- 70.9 14.0
07/25/2018 00:00 457.20 0.00 0.82 72.2 14.0
07/24/2018 23:00 457.20 0.00 -- 72.4 14.0
07/24/2018 22:00 457.20 0.00 -- 72.4 14.0
07/24/2018 21:00 457.20 0.01 -- 73.5 14.0
07/24/2018 20:00 457.21 0.13 -- 74.5 12.8
07/24/2018 19:00 457.18 0.00 -- 82.2 12.3
07/24/2018 18:00 457.18 0.00 -- 83.8 12.8
07/24/2018 17:00 457.18 0.00 -- 86.5 13.0
07/24/2018 16:00 457.17 0.00 -- 84.4 12.5
07/24/2018 15:00 457.18 0.00 -- 86.5 12.8
07/24/2018 14:00 457.18 0.00 -- 84.8 12.8
07/24/2018 13:00 457.17 0.00 -- 83.0 12.3
07/24/2018 12:00 457.18 0.00 -- 80.8 12.8
07/24/2018 11:00 457.17 0.00 -- 79.4 12.0
07/24/2018 10:00 457.17 0.00 -- 76.5 12.0
07/24/2018 09:00 457.17 0.00 -- 75.1 12.0
07/24/2018 08:00 457.17 0.00 -- 71.6 12.0
07/24/2018 07:00 457.17 0.00 -- 70.2 12.0
07/24/2018 06:00 457.17 0.00 -- 70.4 12.0
07/24/2018 05:00 457.17 0.00 -- 70.1 12.0
07/24/2018 04:00 457.17 0.00 -- 70.8 12.0
07/24/2018 03:00 457.17 0.00 -- 70.5 12.0
07/24/2018 02:00 457.17 0.00 -- 70.9 12.0
07/24/2018 01:00 457.17 0.00 -- 71.4 12.0
07/24/2018 00:00 457.17 0.00 0.14 73.1 12.0
07/23/2018 23:00 457.17 0.00 -- 74.1 12.0
07/23/2018 22:00 457.17 0.00 -- 75.5 12.0
07/23/2018 21:00 457.17 0.00 -- 76.8 12.0
07/23/2018 20:00 457.17 0.00 -- 78.1 12.0
07/23/2018 19:00 457.17 0.00 -- 78.7 12.0
07/23/2018 18:00 457.17 0.00 -- 79.7 12.0
07/23/2018 17:00 457.17 0.02 -- 78.9 12.0
07/23/2018 16:00 457.17 0.01 -- 76.5 12.0
07/23/2018 15:00 457.16 0.02 -- 76.8 11.3
07/23/2018 14:00 457.16 0.00 -- 78.6 11.0
07/23/2018 13:00 457.16 0.00 -- 78.6 11.0
07/23/2018 12:00 457.16 0.00 -- 73.6 11.0
07/23/2018 11:00 457.16 0.00 -- 71.8 11.0
07/23/2018 10:00 457.16 0.01 -- 69.9 11.0
07/23/2018 09:00 457.16 0.01 -- 68.2 11.0
07/23/2018 08:00 457.16 0.04 -- 68.1 11.0
07/23/2018 07:00 457.16 0.02 -- 67.5 11.0
07/23/2018 06:00 457.16 0.01 -- 67.4 11.0
07/23/2018 05:00 457.16 0.00 -- 67.3 11.0
07/23/2018 04:00 457.15 0.02 -- 67.3 11.0
07/23/2018 03:00 457.15 0.00 -- 67.1 10.3
07/23/2018 02:00 457.15 0.05 -- 66.8 10.0
07/23/2018 01:00 457.14 0.01 -- 67.2 10.0
07/23/2018 00:00 457.14 0.00 0.22 67.3 10.0
07/22/2018 23:00 457.15 0.00 -- 67.4 10.0
07/22/2018 22:00 457.14 0.00 -- 67.3 10.0
07/22/2018 21:00 457.14 0.00 -- 67.4 10.0
07/22/2018 20:00 457.14 0.00 -- 67.2 10.0
07/22/2018 19:00 457.15 0.00 -- 66.7 10.0
07/22/2018 18:00 457.14 0.00 -- 66.4 10.0
07/22/2018 17:00 457.14 0.01 -- 66.4 10.0
07/22/2018 16:00 457.14 0.04 -- 64.2 10.0
07/22/2018 15:00 457.14 0.07 -- 63.3 9.3
07/22/2018 14:00 457.13 0.03 -- 62.9 9.0
07/22/2018 13:00 457.13 0.00 -- 63.1 9.0
07/22/2018 12:00 457.13 0.01 -- 64.7 9.0
07/22/2018 11:00 457.12 0.00 -- 65.5 9.0
07/22/2018 10:00 457.13 0.00 -- 64.9 9.0
07/22/2018 09:00 457.13 0.00 -- 61.5 9.0
07/22/2018 08:00 457.13 0.00 -- 58.2 9.0
07/22/2018 07:00 457.13 0.00 -- 56.1 9.0
07/22/2018 06:00 457.13 0.00 -- 55.0 9.0
07/22/2018 05:00 457.14 0.00 -- 55.0 9.0
07/22/2018 04:00 457.14 0.00 -- 56.2 9.3
07/22/2018 03:00 457.14 0.00 -- 57.4 10.0
07/22/2018 02:00 457.14 0.00 -- 58.6 10.0
07/22/2018 01:00 457.14 0.00 -- 59.2 10.0
07/22/2018 00:00 457.14 0.00 0.16 61.7 10.0
07/21/2018 23:00 457.14 0.00 -- 64.3 10.0
07/21/2018 22:00 457.14 0.00 -- 68.9 10.0
07/21/2018 21:00 457.15 0.00 -- 74.4 10.0
07/21/2018 20:00 457.15 0.00 -- 78.3 10.3
07/21/2018 19:00 457.15 0.00 -- 80.9 10.3
07/21/2018 18:00 457.15 0.00 -- 83.0 10.8
07/21/2018 17:00 457.16 0.00 -- 84.4 10.5
07/21/2018 16:00 457.15 0.00 -- 82.8 10.3
07/21/2018 15:00 457.15 0.00 -- 82.3 10.0
07/21/2018 14:00 457.14 0.00 -- 79.2 10.0
07/21/2018 13:00 457.14 0.00 -- 78.3 10.0
07/21/2018 12:00 -- -- -- 76.2 10.0
07/21/2018 11:00 -- -- -- 73.8 10.0
07/21/2018 10:00 -- -- -- 69.4 10.0
07/21/2018 09:00 -- -- -- 62.1 10.0
07/21/2018 08:00 -- -- -- 57.0 10.0
07/21/2018 07:00 -- -- -- 55.0 10.0
07/21/2018 06:00 -- -- -- 56.5 10.0
07/21/2018 05:00 -- -- -- 57.1 10.0
07/21/2018 04:00 -- -- -- 58.0 10.0
07/21/2018 03:00 -- -- -- 59.7 10.0
07/21/2018 02:00 -- -- -- 60.3 10.0
07/21/2018 01:00 -- -- -- 62.6 10.0
07/21/2018 00:00 -- -- 0.00 65.8 10.0